Wetterdaten: Sonntag, 16.03.2014
Datum Zeit Temp. Aussen +5cm Feuchte Auss Luftdruck Regen Sonnenschein Regendauer UV Solar Windben
16.03.2014 00:00 9,6 C 8,3 C 78 % 1018,7 hPa 0,0 l/m 0 min 0 min 0,0 UV-I 0 W/m 23,2 km/h (4 Bft)
16.03.2014 00:02 9,6 C 8,3 C 79 % 1018,7 hPa 0,0 l/m 0 min 0 min 0,0 UV-I 0 W/m 12,9 km/h (3 Bft)
16.03.2014 00:06 9,6 C 8,3 C 78 % 1018,7 hPa 0,0 l/m 0 min 0 min 0,0 UV-I 0 W/m 23,2 km/h (4 Bft)
16.03.2014 00:08 9,6 C 8,3 C 78 % 1018,6 hPa 0,0 l/m 0 min 0 min 0,0 UV-I 0 W/m 23,2 km/h (4 Bft)
16.03.2014 00:10 9,7 C 8,3 C 78 % 1018,7 hPa 0,0 l/m 0 min 0 min 0,0 UV-I 0 W/m 20,6 km/h (4 Bft)
16.03.2014 00:12 9,7 C 8,3 C 79 % 1018,6 hPa 0,0 l/m 0 min 0 min 0,0 UV-I 0 W/m 23,2 km/h (4 Bft)
16.03.2014 00:14 9,7 C 8,3 C 79 % 1018,7 hPa 0,0 l/m 0 min 0 min 0,0 UV-I 0 W/m 23,2 km/h (4 Bft)
16.03.2014 00:16 9,7 C 8,3 C 78 % 1018,6 hPa 0,0 l/m 0 min 0 min 0,0 UV-I 0 W/m 18,0 km/h (3 Bft)
16.03.2014 00:18 9,7 C 8,3 C 79 % 1018,7 hPa 0,0 l/m 0 min 0 min 0,0 UV-I 0 W/m 18,0 km/h (3 Bft)
16.03.2014 00:20 9,7 C 8,3 C 79 % 1018,6 hPa 0,0 l/m 0 min 0 min 0,0 UV-I 0 W/m 10,3 km/h (2 Bft)
16.03.2014 00:22 9,7 C 8,3 C 79 % 1018,6 hPa 0,0 l/m 0 min 0 min 0,0 UV-I 0 W/m 15,4 km/h (3 Bft)
16.03.2014 00:24 9,7 C 8,3 C 79 % 1018,6 hPa 0,0 l/m 0 min 0 min 0,0 UV-I 0 W/m 12,9 km/h (3 Bft)
16.03.2014 00:26 9,7 C 8,3 C 79 % 1018,6 hPa 0,0 l/m 0 min 0 min 0,0 UV-I 0 W/m 12,9 km/h (3 Bft)
16.03.2014 00:28 9,7 C 8,3 C 79 % 1018,6 hPa 0,0 l/m 0 min 0 min 0,0 UV-I 0 W/m 10,3 km/h (2 Bft)
16.03.2014 00:30 9,8 C 8,3 C 79 % 1018,6 hPa 0,0 l/m 0 min 0 min 0,0 UV-I 0 W/m 10,3 km/h (2 Bft)
16.03.2014 00:32 9,8 C 8,3 C 79 % 1018,6 hPa 0,0 l/m 0 min 0 min 0,0 UV-I 0 W/m 18,0 km/h (3 Bft)
16.03.2014 00:34 9,8 C 8,3 C 79 % 1018,7 hPa 0,0 l/m 0 min 0 min 0,0 UV-I 0 W/m 12,9 km/h (3 Bft)
16.03.2014 00:36 9,8 C 8,3 C 79 % 1018,7 hPa 0,0 l/m 0 min 0 min 0,0 UV-I 0 W/m 25,7 km/h (4 Bft)
16.03.2014 00:38 9,9 C 8,3 C 78 % 1018,6 hPa 0,0 l/m 0 min 0 min 0,0 UV-I 0 W/m 7,7 km/h (2 Bft)
16.03.2014 00:40 9,9 C 8,9 C 78 % 1018,6 hPa 0,0 l/m 0 min 0 min 0,0 UV-I 0 W/m 20,6 km/h (4 Bft)
16.03.2014 00:42 9,9 C 8,9 C 78 % 1018,7 hPa 0,0 l/m 0 min 0 min 0,0 UV-I 0 W/m 12,9 km/h (3 Bft)
16.03.2014 00:44 9,9 C 8,9 C 78 % 1018,7 hPa 0,0 l/m 0 min 0 min 0,0 UV-I 0 W/m 18,0 km/h (3 Bft)
16.03.2014 00:46 10,0 C 8,3 C 78 % 1018,8 hPa 0,0 l/m 0 min 0 min 0,0 UV-I 0 W/m 18,0 km/h (3 Bft)
16.03.2014 00:48 10,0 C 8,9 C 78 % 1018,9 hPa 0,0 l/m 0 min 0 min 0,0 UV-I 0 W/m 12,9 km/h (3 Bft)
16.03.2014 00:50 10,0 C 8,9 C 78 % 1018,9 hPa 0,0 l/m 0 min 0 min 0,0 UV-I 0 W/m 20,6 km/h (4 Bft)
16.03.2014 00:52 10,0 C 8,9 C 78 % 1018,9 hPa 0,0 l/m 0 min 0 min 0,0 UV-I 0 W/m 10,3 km/h (2 Bft)
16.03.2014 00:54 10,0 C 8,9 C 78 % 1019,0 hPa 0,0 l/m 0 min 0 min 0,0 UV-I 0 W/m 10,3 km/h (2 Bft)
16.03.2014 00:56 10,1 C 8,9 C 78 % 1019,0 hPa 0,0 l/m 0 min 0 min 0,0 UV-I 0 W/m 15,4 km/h (3 Bft)
16.03.2014 00:58 10,1 C 8,9 C 78 % 1019,1 hPa 0,0 l/m 0 min 0 min 0,0 UV-I 0 W/m 12,9 km/h (3 Bft)
16.03.2014 01:00 10,1 C 8,9 C 78 % 1019,0 hPa 0,0 l/m 0 min 0 min 0,0 UV-I 0 W/m 18,0 km/h (3 Bft)
16.03.2014 01:03 10,2 C 8,9 C 78 % 1019,0 hPa 0,0 l/m 0 min 0 min 0,0 UV-I 0 W/m 23,2 km/h (4 Bft)
16.03.2014 01:04 10,2 C 8,9 C 78 % 1019,0 hPa 0,0 l/m 0 min 0 min 0,0 UV-I 0 W/m 7,7 km/h (2 Bft)
16.03.2014 01:06 10,2 C 8,9 C 78 % 1019,0 hPa 0,0 l/m 0 min 0 min 0,0 UV-I 0 W/m 7,7 km/h (2 Bft)
16.03.2014 01:08 10,2 C 8,9 C 78 % 1019,0 hPa 0,0 l/m 0 min 0 min 0,0 UV-I 0 W/m 18,0 km/h (3 Bft)
16.03.2014 01:10 10,2 C 8,9 C 78 % 1018,9 hPa 0,0 l/m 0 min 0 min 0,0 UV-I 0 W/m 18,0 km/h (3 Bft)
16.03.2014 01:12 10,2 C 8,9 C 78 % 1018,9 hPa 0,0 l/m 0 min 0 min 0,0 UV-I 0 W/m 10,3 km/h (2 Bft)
16.03.2014 01:14 10,2 C 8,9 C 78 % 1018,9 hPa 0,0 l/m 0 min 0 min 0,0 UV-I 0 W/m 12,9 km/h (3 Bft)
16.03.2014 01:16 10,2 C 8,9 C 79 % 1018,8 hPa 0,0 l/m 0 min 0 min 0,0 UV-I 0 W/m 7,7 km/h (2 Bft)
16.03.2014 01:18 10,2 C 8,9 C 79 % 1018,7 hPa 0,0 l/m 0 min 0 min 0,0 UV-I 0 W/m 25,7 km/h (4 Bft)
16.03.2014 01:20 10,2 C 8,9 C 79 % 1018,7 hPa 0,0 l/m 0 min 0 min 0,0 UV-I 0 W/m 23,2 km/h (4 Bft)
16.03.2014 01:22 10,2 C 8,9 C 79 % 1018,7 hPa 0,0 l/m 0 min 0 min 0,0 UV-I 0 W/m 25,7 km/h (4 Bft)
16.03.2014 01:24 10,2 C 8,9 C 79 % 1018,7 hPa 0,0 l/m 0 min 0 min 0,0 UV-I 0 W/m 12,9 km/h (3 Bft)
16.03.2014 01:26 10,2 C 8,9 C 79 % 1018,7 hPa 0,0 l/m 0 min 0 min 0,0 UV-I 0 W/m 18,0 km/h (3 Bft)
16.03.2014 01:28 10,2 C 8,9 C 79 % 1018,7 hPa 0,0 l/m 0 min 0 min 0,0 UV-I 0 W/m 18,0 km/h (3 Bft)
16.03.2014 01:30 10,2 C 8,9 C 79 % 1018,7 hPa 0,0 l/m 0 min 0 min 0,0 UV-I 0 W/m 12,9 km/h (3 Bft)
16.03.2014 01:32 10,2 C 8,9 C 79 % 1018,6 hPa 0,0 l/m 0 min 0 min 0,0 UV-I 0 W/m 12,9 km/h (3 Bft)
16.03.2014 01:34 10,2 C 8,9 C 79 % 1018,6 hPa 0,0 l/m 0 min 0 min 0,0 UV-I 0 W/m 18,0 km/h (3 Bft)
16.03.2014 01:36 10,2 C 8,9 C 79 % 1018,6 hPa 0,0 l/m 0 min 0 min 0,0 UV-I 0 W/m 12,9 km/h (3 Bft)
16.03.2014 01:38 10,2 C 8,9 C 79 % 1018,6 hPa 0,0 l/m 0 min 0 min 0,0 UV-I 0 W/m 18,0 km/h (3 Bft)
16.03.2014 01:40 10,2 C 8,9 C 79 % 1018,6 hPa 0,0 l/m 0 min 0 min 0,0 UV-I 0 W/m 18,0 km/h (3 Bft)
16.03.2014 01:42 10,2 C 8,9 C 79 % 1018,6 hPa 0,0 l/m 0 min 0 min 0,0 UV-I 0 W/m 20,6 km/h (4 Bft)
16.03.2014 01:44 10,2 C 8,9 C 80 % 1018,6 hPa 0,0 l/m 0 min 0 min 0,0 UV-I 0 W/m 23,2 km/h (4 Bft)
16.03.2014 01:46 10,2 C 8,9 C 80 % 1018,6 hPa 0,0 l/m 0 min 0 min 0,0 UV-I 0 W/m 10,3 km/h (2 Bft)
16.03.2014 01:48 10,2 C 8,9 C 80 % 1018,6 hPa 0,0 l/m 0 min 0 min 0,0 UV-I 0 W/m 15,4 km/h (3 Bft)
16.03.2014 01:50 10,2 C 8,9 C 80 % 1018,5 hPa 0,0 l/m 0 min 0 min 0,0 UV-I 0 W/m 23,2 km/h (4 Bft)
16.03.2014 01:52 10,2 C 8,9 C 80 % 1018,4 hPa 0,0 l/m 0 min 0 min 0,0 UV-I 0 W/m 12,9 km/h (3 Bft)
16.03.2014 01:54 10,2 C 8,9 C 80 % 1018,3 hPa 0,0 l/m 0 min 0 min 0,0 UV-I 0 W/m 25,7 km/h (4 Bft)
16.03.2014 01:56 10,2 C 8,9 C 80 % 1018,3 hPa 0,0 l/m 0 min 0 min 0,0 UV-I 0 W/m 12,9 km/h (3 Bft)
16.03.2014 01:58 10,2 C 8,9 C 80 % 1018,3 hPa 0,0 l/m 0 min 0 min 0,0 UV-I 0 W/m 10,3 km/h (2 Bft)
16.03.2014 02:00 10,3 C 8,9 C 80 % 1018,3 hPa 0,0 l/m 0 min 0 min 0,0 UV-I 0 W/m 12,9 km/h (3 Bft)
16.03.2014 02:02 10,2 C 8,9 C 81 % 1018,3 hPa 0,0 l/m 0 min 0 min 0,0 UV-I 0 W/m 20,6 km/h (4 Bft)
16.03.2014 02:06 10,3 C 8,9 C 81 % 1018,4 hPa 0,0 l/m 0 min 0 min 0,0 UV-I 0 W/m 20,6 km/h (4 Bft)
16.03.2014 02:08 10,3 C 8,9 C 81 % 1018,4 hPa 0,0 l/m 0 min 0 min 0,0 UV-I 0 W/m 12,9 km/h (3 Bft)
16.03.2014 02:10 10,3 C 8,9 C 81 % 1018,5 hPa 0,0 l/m 0 min 0 min 0,0 UV-I 0 W/m 20,6 km/h (4 Bft)
16.03.2014 02:12 10,3 C 8,9 C 81 % 1018,5 hPa 0,0 l/m 0 min 0 min 0,0 UV-I 0 W/m 15,4 km/h (3 Bft)
16.03.2014 02:14 10,3 C 8,9 C 81 % 1018,4 hPa 0,0 l/m 0 min 0 min 0,0 UV-I 0 W/m 25,7 km/h (4 Bft)
16.03.2014 02:16 10,4 C 8,9 C 81 % 1018,4 hPa 0,0 l/m 0 min 0 min 0,0 UV-I 0 W/m 25,7 km/h (4 Bft)
16.03.2014 02:18 10,4 C 8,9 C 81 % 1018,4 hPa 0,0 l/m 0 min 0 min 0,0 UV-I 0 W/m 7,7 km/h (2 Bft)
16.03.2014 02:20 10,4 C 8,9 C 81 % 1018,4 hPa 0,0 l/m 0 min 0 min 0,0 UV-I 0 W/m 10,3 km/h (2 Bft)
16.03.2014 02:22 10,4 C 8,9 C 81 % 1018,5 hPa 0,0 l/m 0 min 0 min 0,0 UV-I 0 W/m 15,4 km/h (3 Bft)
16.03.2014 02:24 10,4 C 8,9 C 81 % 1018,5 hPa 0,0 l/m 0 min 0 min 0,0 UV-I 0 W/m 28,3 km/h (4 Bft)
16.03.2014 02:26 10,4 C 8,9 C 81 % 1018,5 hPa 0,0 l/m 0 min 0 min 0,0 UV-I 0 W/m 7,7 km/h (2 Bft)
16.03.2014 02:28 10,4 C 8,9 C 81 % 1018,5 hPa 0,0 l/m 0 min 0 min 0,0 UV-I 0 W/m 7,7 km/h (2 Bft)
16.03.2014 02:30 10,4 C 8,9 C 81 % 1018,6 hPa 0,0 l/m 0 min 0 min 0,0 UV-I 0 W/m 15,4 km/h (3 Bft)
16.03.2014 02:32 10,4 C 8,9 C 81 % 1018,5 hPa 0,0 l/m 0 min 0 min 0,0 UV-I 0 W/m 15,4 km/h (3 Bft)
16.03.2014 02:34 10,4 C 8,9 C 81 % 1018,6 hPa 0,0 l/m 0 min 0 min 0,0 UV-I 0 W/m 23,2 km/h (4 Bft)
16.03.2014 02:36 10,5 C 8,9 C 81 % 1018,6 hPa 0,0 l/m 0 min 0 min 0,0 UV-I 0 W/m 12,9 km/h (3 Bft)
16.03.2014 02:38 10,5 C 8,9 C 81 % 1018,6 hPa 0,0 l/m 0 min 0 min 0,0 UV-I 0 W/m 7,7 km/h (2 Bft)
16.03.2014 02:40 10,5 C 8,9 C 81 % 1018,5 hPa 0,0 l/m 0 min 0 min 0,0 UV-I 0 W/m 5,1 km/h (1 Bft)
16.03.2014 02:42 10,5 C 8,9 C 81 % 1018,5 hPa 0,0 l/m 0 min 0 min 0,0 UV-I 0 W/m 10,3 km/h (2 Bft)
16.03.2014 02:44 10,5 C 8,9 C 81 % 1018,5 hPa 0,0 l/m 0 min 0 min 0,0 UV-I 0 W/m 15,4 km/h (3 Bft)
16.03.2014 02:46 10,5 C 8,9 C 81 % 1018,4 hPa 0,0 l/m 0 min 0 min 0,0 UV-I 0 W/m 18,0 km/h (3 Bft)
16.03.2014 02:48 10,5 C 8,9 C 81 % 1018,4 hPa 0,0 l/m 0 min 0 min 0,0 UV-I 0 W/m 5,1 km/h (1 Bft)
16.03.2014 02:50 10,4 C 8,9 C 81 % 1018,4 hPa 0,0 l/m 0 min 0 min 0,0 UV-I 0 W/m 5,1 km/h (1 Bft)
16.03.2014 02:52 10,5 C 8,9 C 82 % 1018,3 hPa 0,0 l/m 0 min 0 min 0,0 UV-I 0 W/m 12,9 km/h (3 Bft)
16.03.2014 02:54 10,4 C 8,9 C 82 % 1018,4 hPa 0,0 l/m 0 min 0 min 0,0 UV-I 0 W/m 12,9 km/h (3 Bft)
16.03.2014 02:56 10,4 C 8,9 C 82 % 1018,3 hPa 0,0 l/m 0 min 0 min 0,0 UV-I 0 W/m 12,9 km/h (3 Bft)
16.03.2014 02:58 10,5 C 8,9 C 82 % 1018,3 hPa 0,0 l/m 0 min 0 min 0,0 UV-I 0 W/m 12,9 km/h (3 Bft)
16.03.2014 03:00 10,5 C 8,9 C 82 % 1018,3 hPa 0,0 l/m 0 min 0 min 0,0 UV-I 0 W/m 18,0 km/h (3 Bft)
16.03.2014 03:02 10,5 C 8,9 C 82 % 1018,3 hPa 0,0 l/m 0 min 0 min 0,0 UV-I 0 W/m 12,9 km/h (3 Bft)
16.03.2014 03:04 10,4 C 8,9 C 82 % 1018,3 hPa 0,0 l/m 0 min 0 min 0,0 UV-I 0 W/m 18,0 km/h (3 Bft)
16.03.2014 03:06 10,4 C 8,9 C 82 % 1018,2 hPa 0,0 l/m 0 min 0 min 0,0 UV-I 0 W/m 7,7 km/h (2 Bft)
16.03.2014 03:08 10,4 C 8,9 C 82 % 1018,3 hPa 0,0 l/m 0 min 0 min 0,0 UV-I 0 W/m 20,6 km/h (4 Bft)
16.03.2014 03:10 10,4 C 8,9 C 82 % 1018,2 hPa 0,0 l/m 0 min 0 min 0,0 UV-I 0 W/m 5,1 km/h (1 Bft)
16.03.2014 03:12 10,4 C 8,9 C 82 % 1018,1 hPa 0,0 l/m 0 min 0 min 0,0 UV-I 0 W/m 0,0 km/h (0 Bft)
16.03.2014 03:14 10,4 C 8,9 C 82 % 1018,2 hPa 0,0 l/m 0 min 0 min 0,0 UV-I 0 W/m 20,6 km/h (4 Bft)
16.03.2014 03:16 10,4 C 8,9 C 82 % 1018,2 hPa 0,0 l/m 0 min 0 min 0,0 UV-I 0 W/m 15,4 km/h (3 Bft)
16.03.2014 03:18 10,4 C 8,9 C 82 % 1018,2 hPa 0,0 l/m 0 min 0 min 0,0 UV-I 0 W/m 0,0 km/h (0 Bft)
16.03.2014 03:20 10,4 C 8,9 C 82 % 1018,2 hPa 0,0 l/m 0 min 0 min 0,0 UV-I 0 W/m 18,0 km/h (3 Bft)
16.03.2014 03:22 10,4 C 8,9 C 82 % 1018,2 hPa 0,0 l/m 0 min 0 min 0,0 UV-I 0 W/m 15,4 km/h (3 Bft)
16.03.2014 03:24 10,4 C 8,9 C 82 % 1018,2 hPa 0,0 l/m 0 min 0 min 0,0 UV-I 0 W/m 15,4 km/h (3 Bft)
16.03.2014 03:26 10,4 C 8,9 C 82 % 1018,1 hPa 0,0 l/m 0 min 0 min 0,0 UV-I 0 W/m 12,9 km/h (3 Bft)
16.03.2014 03:28 10,4 C 8,9 C 82 % 1018,0 hPa 0,0 l/m 0 min 0 min 0,0 UV-I 0 W/m 7,7 km/h (2 Bft)
16.03.2014 03:30 10,4 C 8,9 C 82 % 1018,0 hPa 0,0 l/m 0 min 0 min 0,0 UV-I 0 W/m 2,6 km/h (1 Bft)
16.03.2014 03:32 10,3 C 8,9 C 82 % 1018,0 hPa 0,0 l/m 0 min 0 min 0,0 UV-I 0 W/m 20,6 km/h (4 Bft)
16.03.2014 03:34 10,3 C 8,9 C 82 % 1018,0 hPa 0,0 l/m 0 min 0 min 0,0 UV-I 0 W/m 10,3 km/h (2 Bft)
16.03.2014 03:36 10,4 C 8,9 C 82 % 1018,0 hPa 0,0 l/m 0 min 0 min 0,0 UV-I 0 W/m 10,3 km/h (2 Bft)
16.03.2014 03:38 10,4 C 8,9 C 82 % 1017,9 hPa 0,0 l/m 0 min 0 min 0,0 UV-I 0 W/m 15,4 km/h (3 Bft)
16.03.2014 03:40 10,4 C 8,9 C 82 % 1017,9 hPa 0,0 l/m 0 min 0 min 0,0 UV-I 0 W/m 20,6 km/h (4 Bft)
16.03.2014 03:42 10,4 C 8,9 C 82 % 1017,9 hPa 0,0 l/m 0 min 0 min 0,0 UV-I 0 W/m 15,4 km/h (3 Bft)
16.03.2014 03:44 10,4 C 8,9 C 82 % 1018,1 hPa 0,0 l/m 0 min 0 min 0,0 UV-I 0 W/m 7,7 km/h (2 Bft)
16.03.2014 03:46 10,4 C 8,9 C 82 % 1018,0 hPa 0,0 l/m 0 min 0 min 0,0 UV-I 0 W/m 18,0 km/h (3 Bft)
16.03.2014 03:48 10,4 C 8,9 C 82 % 1018,0 hPa 0,0 l/m 0 min 0 min 0,0 UV-I 0 W/m 20,6 km/h (4 Bft)
16.03.2014 03:50 10,4 C 8,9 C 82 % 1018,0 hPa 0,0 l/m 0 min 0 min 0,0 UV-I 0 W/m 15,4 km/h (3 Bft)
16.03.2014 03:52 10,4 C 8,9 C 82 % 1017,9 hPa 0,0 l/m 0 min 0 min 0,0 UV-I 0 W/m 15,4 km/h (3 Bft)
16.03.2014 03:54 10,4 C 8,9 C 82 % 1018,0 hPa 0,0 l/m 0 min 0 min 0,0 UV-I 0 W/m 12,9 km/h (3 Bft)
16.03.2014 03:56 10,4 C 8,9 C 82 % 1018,1 hPa 0,0 l/m 0 min 0 min 0,0 UV-I 0 W/m 15,4 km/h (3 Bft)
16.03.2014 03:58 10,4 C 8,9 C 82 % 1018,2 hPa 0,0 l/m 0 min 0 min 0,0 UV-I 0 W/m 12,9 km/h (3 Bft)
16.03.2014 04:00 10,4 C 8,9 C 83 % 1018,1 hPa 0,0 l/m 0 min 0 min 0,0 UV-I 0 W/m 12,9 km/h (3 Bft)
16.03.2014 04:02 10,4 C 8,9 C 83 % 1018,1 hPa 0,0 l/m 0 min 0 min 0,0 UV-I 0 W/m 10,3 km/h (2 Bft)
16.03.2014 04:04 10,3 C 8,9 C 83 % 1018,1 hPa 0,0 l/m 0 min 0 min 0,0 UV-I 0 W/m 20,6 km/h (4 Bft)
16.03.2014 04:06 10,3 C 8,9 C 83 % 1018,0 hPa 0,0 l/m 0 min 0 min 0,0 UV-I 0 W/m 18,0 km/h (3 Bft)
16.03.2014 04:08 10,4 C 8,9 C 83 % 1018,0 hPa 0,0 l/m 0 min 0 min 0,0 UV-I 0 W/m 12,9 km/h (3 Bft)
16.03.2014 04:10 10,4 C 8,9 C 83 % 1018,1 hPa 0,0 l/m 0 min 0 min 0,0 UV-I 0 W/m 15,4 km/h (3 Bft)
16.03.2014 04:12 10,4 C 8,9 C 83 % 1018,1 hPa 0,0 l/m 0 min 0 min 0,0 UV-I 0 W/m 20,6 km/h (4 Bft)
16.03.2014 04:14 10,4 C 8,9 C 83 % 1018,1 hPa 0,0 l/m 0 min 0 min 0,0 UV-I 0 W/m 5,1 km/h (1 Bft)
16.03.2014 04:16 10,3 C 8,9 C 83 % 1018,0 hPa 0,0 l/m 0 min 0 min 0,0 UV-I 0 W/m 15,4 km/h (3 Bft)
16.03.2014 04:18 10,3 C 8,9 C 83 % 1018,2 hPa 0,0 l/m 0 min 0 min 0,0 UV-I 0 W/m 12,9 km/h (3 Bft)
16.03.2014 04:20 10,3 C 8,9 C 83 % 1017,9 hPa 0,0 l/m 0 min 0 min 0,0 UV-I 0 W/m 20,6 km/h (4 Bft)
16.03.2014 04:22 10,3 C 8,9 C 83 % 1018,0 hPa 0,0 l/m 0 min 0 min 0,0 UV-I 0 W/m 23,2 km/h (4 Bft)
16.03.2014 04:24 10,3 C 8,9 C 83 % 1017,9 hPa 0,0 l/m 0 min 0 min 0,0 UV-I 0 W/m 15,4 km/h (3 Bft)
16.03.2014 04:26 10,3 C 8,9 C 83 % 1017,9 hPa 0,0 l/m 0 min 0 min 0,0 UV-I 0 W/m 12,9 km/h (3 Bft)
16.03.2014 04:28 10,3 C 8,9 C 83 % 1017,9 hPa 0,0 l/m 0 min 0 min 0,0 UV-I 0 W/m 18,0 km/h (3 Bft)
16.03.2014 04:30 10,3 C 8,9 C 83 % 1017,9 hPa 0,0 l/m 0 min 0 min 0,0 UV-I 0 W/m 20,6 km/h (4 Bft)
16.03.2014 04:32 10,3 C 8,9 C 83 % 1017,9 hPa 0,0 l/m 0 min 0 min 0,0 UV-I 0 W/m 7,7 km/h (2 Bft)
16.03.2014 04:34 10,2 C 8,9 C 83 % 1017,8 hPa 0,0 l/m 0 min 0 min 0,0 UV-I 0 W/m 15,4 km/h (3 Bft)
16.03.2014 04:36 10,2 C 8,9 C 83 % 1017,9 hPa 0,0 l/m 0 min 0 min 0,0 UV-I 0 W/m 15,4 km/h (3 Bft)
16.03.2014 04:38 10,2 C 8,9 C 83 % 1017,9 hPa 0,0 l/m 0 min 0 min 0,0 UV-I 0 W/m 23,2 km/h (4 Bft)
16.03.2014 04:40 10,2 C 8,9 C 83 % 1017,8 hPa 0,0 l/m 0 min 0 min 0,0 UV-I 0 W/m 10,3 km/h (2 Bft)
16.03.2014 04:42 10,2 C 8,9 C 83 % 1017,8 hPa 0,0 l/m 0 min 0 min 0,0 UV-I 0 W/m 12,9 km/h (3 Bft)
16.03.2014 04:44 10,2 C 8,9 C 84 % 1017,9 hPa 0,0 l/m 0 min 0 min 0,0 UV-I 0 W/m 10,3 km/h (2 Bft)
16.03.2014 04:46 10,2 C 8,9 C 84 % 1017,9 hPa 0,0 l/m 0 min 0 min 0,0 UV-I 0 W/m 12,9 km/h (3 Bft)
16.03.2014 04:48 10,2 C 8,9 C 83 % 1017,9 hPa 0,0 l/m 0 min 0 min 0,0 UV-I 0 W/m 0,0 km/h (0 Bft)
16.03.2014 04:50 10,1 C 8,9 C 84 % 1017,9 hPa 0,0 l/m 0 min 0 min 0,0 UV-I 0 W/m 12,9 km/h (3 Bft)
16.03.2014 04:52 10,1 C 8,9 C 84 % 1017,9 hPa 0,0 l/m 0 min 0 min 0,0 UV-I 0 W/m 18,0 km/h (3 Bft)
16.03.2014 04:54 10,1 C 8,9 C 84 % 1017,9 hPa 0,0 l/m 0 min 0 min 0,0 UV-I 0 W/m 23,2 km/h (4 Bft)
16.03.2014 04:56 10,1 C 8,9 C 84 % 1018,0 hPa 0,0 l/m 0 min 0 min 0,0 UV-I 0 W/m 7,7 km/h (2 Bft)
16.03.2014 04:58 10,1 C 8,9 C 84 % 1018,0 hPa 0,0 l/m 0 min 0 min 0,0 UV-I 0 W/m 10,3 km/h (2 Bft)
16.03.2014 05:00 10,1 C 8,9 C 84 % 1018,0 hPa 0,0 l/m 0 min 0 min 0,0 UV-I 0 W/m 10,3 km/h (2 Bft)
16.03.2014 05:02 10,1 C 8,9 C 84 % 1018,0 hPa 0,0 l/m 0 min 0 min 0,0 UV-I 0 W/m 20,6 km/h (4 Bft)
16.03.2014 05:06 10,1 C 8,9 C 84 % 1018,0 hPa 0,0 l/m 0 min 0 min 0,0 UV-I 0 W/m 20,6 km/h (4 Bft)
16.03.2014 05:08 10,1 C 8,9 C 84 % 1018,0 hPa 0,0 l/m 0 min 0 min 0,0 UV-I 0 W/m 12,9 km/h (3 Bft)
16.03.2014 05:10 10,1 C 8,9 C 84 % 1018,0 hPa 0,0 l/m 0 min 0 min 0,0 UV-I 0 W/m 10,3 km/h (2 Bft)
16.03.2014 05:12 10,1 C 8,9 C 84 % 1017,9 hPa 0,0 l/m 0 min 0 min 0,0 UV-I 0 W/m 7,7 km/h (2 Bft)
16.03.2014 05:14 10,0 C 8,9 C 84 % 1017,9 hPa 0,0 l/m 0 min 0 min 0,0 UV-I 0 W/m 5,1 km/h (1 Bft)
16.03.2014 05:16 10,0 C 8,9 C 84 % 1017,9 hPa 0,0 l/m 0 min 0 min 0,0 UV-I 0 W/m 20,6 km/h (4 Bft)
16.03.2014 05:18 10,0 C 8,9 C 84 % 1017,9 hPa 0,0 l/m 0 min 0 min 0,0 UV-I 0 W/m 18,0 km/h (3 Bft)
16.03.2014 05:20 10,0 C 8,9 C 84 % 1017,9 hPa 0,0 l/m 0 min 0 min 0,0 UV-I 0 W/m 20,6 km/h (4 Bft)
16.03.2014 05:22 10,0 C 8,9 C 84 % 1018,0 hPa 0,0 l/m 0 min 0 min 0,0 UV-I 0 W/m 20,6 km/h (4 Bft)
16.03.2014 05:24 10,0 C 8,9 C 84 % 1017,9 hPa 0,0 l/m 0 min 0 min 0,0 UV-I 0 W/m 15,4 km/h (3 Bft)
16.03.2014 05:26 10,0 C 8,9 C 84 % 1017,9 hPa 0,0 l/m 0 min 0 min 0,0 UV-I 0 W/m 15,4 km/h (3 Bft)
16.03.2014 05:28 9,9 C 8,9 C 84 % 1018,0 hPa 0,0 l/m 0 min 0 min 0,0 UV-I 0 W/m 23,2 km/h (4 Bft)
16.03.2014 05:30 9,9 C 8,9 C 84 % 1017,9 hPa 0,0 l/m 0 min 0 min 0,0 UV-I 0 W/m 28,3 km/h (4 Bft)
16.03.2014 05:32 9,9 C 8,9 C 84 % 1018,0 hPa 0,0 l/m 0 min 0 min 0,0 UV-I 0 W/m 10,3 km/h (2 Bft)
16.03.2014 05:34 9,9 C 8,9 C 84 % 1018,0 hPa 0,0 l/m 0 min 0 min 0,0 UV-I 0 W/m 15,4 km/h (3 Bft)
16.03.2014 05:36 9,9 C 8,9 C 84 % 1018,0 hPa 0,0 l/m 0 min 0 min 0,0 UV-I 0 W/m 10,3 km/h (2 Bft)
16.03.2014 05:38 9,9 C 8,9 C 84 % 1018,0 hPa 0,0 l/m 0 min 0 min 0,0 UV-I 0 W/m 12,9 km/h (3 Bft)
16.03.2014 05:40 9,9 C 8,9 C 84 % 1018,0 hPa 0,0 l/m 0 min 0 min 0,0 UV-I 0 W/m 10,3 km/h (2 Bft)
16.03.2014 05:42 9,9 C 8,9 C 84 % 1017,9 hPa 0,0 l/m 0 min 0 min 0,0 UV-I 0 W/m 7,7 km/h (2 Bft)
16.03.2014 05:44 9,9 C 8,9 C 85 % 1017,9 hPa 0,0 l/m 0 min 0 min 0,0 UV-I 0 W/m 15,4 km/h (3 Bft)
16.03.2014 05:46 9,9 C 8,3 C 85 % 1017,9 hPa 0,0 l/m 0 min 0 min 0,0 UV-I 0 W/m 15,4 km/h (3 Bft)
16.03.2014 05:48 9,9 C 8,9 C 85 % 1018,0 hPa 0,0 l/m 0 min 0 min 0,0 UV-I 0 W/m 15,4 km/h (3 Bft)
16.03.2014 05:50 9,9 C 8,9 C 85 % 1018,0 hPa 0,0 l/m 0 min 0 min 0,0 UV-I 0 W/m 18,0 km/h (3 Bft)
16.03.2014 05:52 9,9 C 8,9 C 85 % 1018,0 hPa 0,0 l/m 0 min 0 min 0,0 UV-I 0 W/m 10,3 km/h (2 Bft)
16.03.2014 05:54 9,9 C 8,9 C 85 % 1017,9 hPa 0,0 l/m 0 min 0 min 0,0 UV-I 0 W/m 12,9 km/h (3 Bft)
16.03.2014 05:56 9,9 C 8,3 C 85 % 1017,9 hPa 0,0 l/m 0 min 0 min 0,0 UV-I 0 W/m 10,3 km/h (2 Bft)
16.03.2014 05:58 9,9 C 8,3 C 85 % 1018,0 hPa 0,0 l/m 0 min 0 min 0,0 UV-I 0 W/m 10,3 km/h (2 Bft)
16.03.2014 06:00 9,8 C 8,3 C 85 % 1018,0 hPa 0,0 l/m 0 min 0 min 0,0 UV-I 0 W/m 15,4 km/h (3 Bft)
16.03.2014 06:02 9,8 C 8,3 C 85 % 1018,0 hPa 0,0 l/m 0 min 0 min 0,0 UV-I 0 W/m 20,6 km/h (4 Bft)
16.03.2014 06:06 9,8 C 8,3 C 85 % 1018,1 hPa 0,0 l/m 0 min 0 min 0,0 UV-I 0 W/m 12,9 km/h (3 Bft)
16.03.2014 06:08 9,8 C 8,3 C 85 % 1018,0 hPa 0,0 l/m 0 min 0 min 0,0 UV-I 0 W/m 10,3 km/h (2 Bft)
16.03.2014 06:10 9,8 C 8,3 C 85 % 1018,0 hPa 0,0 l/m 0 min 0 min 0,0 UV-I 0 W/m 23,2 km/h (4 Bft)
16.03.2014 06:12 9,8 C 8,3 C 85 % 1018,0 hPa 0,0 l/m 0 min 0 min 0,0 UV-I 0 W/m 20,6 km/h (4 Bft)
16.03.2014 06:14 9,8 C 8,3 C 85 % 1018,0 hPa 0,0 l/m 0 min 0 min 0,0 UV-I 0 W/m 12,9 km/h (3 Bft)
16.03.2014 06:16 9,8 C 8,3 C 85 % 1018,0 hPa 0,0 l/m 0 min 0 min 0,0 UV-I 0 W/m 18,0 km/h (3 Bft)
16.03.2014 06:18 9,8 C 8,3 C 85 % 1018,2 hPa 0,0 l/m 0 min 0 min 0,0 UV-I 0 W/m 12,9 km/h (3 Bft)
16.03.2014 06:20 9,8 C 8,3 C 85 % 1018,2 hPa 0,0 l/m 0 min 0 min 0,0 UV-I 0 W/m 10,3 km/h (2 Bft)
16.03.2014 06:22 9,8 C 8,3 C 85 % 1018,2 hPa 0,0 l/m 0 min 0 min 0,0 UV-I 0 W/m 10,3 km/h (2 Bft)
16.03.2014 06:24 9,8 C 8,3 C 85 % 1018,4 hPa 0,0 l/m 0 min 0 min 0,0 UV-I 0 W/m 7,7 km/h (2 Bft)
16.03.2014 06:26 9,8 C 8,3 C 85 % 1018,3 hPa 0,0 l/m 0 min 0 min 0,0 UV-I 0 W/m 7,7 km/h (2 Bft)
16.03.2014 06:28 9,8 C 8,3 C 85 % 1018,3 hPa 0,0 l/m 0 min 0 min 0,0 UV-I 0 W/m 7,7 km/h (2 Bft)
16.03.2014 06:30 9,8 C 8,3 C 85 % 1018,3 hPa 0,0 l/m 0 min 0 min 0,0 UV-I 0 W/m 18,0 km/h (3 Bft)
16.03.2014 06:32 9,8 C 8,3 C 85 % 1018,3 hPa 0,0 l/m 0 min 0 min 0,0 UV-I 0 W/m 7,7 km/h (2 Bft)
16.03.2014 06:34 9,8 C 8,3 C 85 % 1018,3 hPa 0,0 l/m 0 min 0 min 0,0 UV-I 0 W/m 10,3 km/h (2 Bft)
16.03.2014 06:36 9,8 C 8,3 C 85 % 1018,3 hPa 0,0 l/m 0 min 0 min 0,0 UV-I 0 W/m 15,4 km/h (3 Bft)
16.03.2014 06:38 9,8 C 8,3 C 85 % 1018,4 hPa 0,0 l/m 0 min 0 min 0,0 UV-I 0 W/m 15,4 km/h (3 Bft)
16.03.2014 06:40 9,8 C 8,3 C 85 % 1018,4 hPa 0,0 l/m 0 min 0 min 0,0 UV-I 0 W/m 15,4 km/h (3 Bft)
16.03.2014 06:42 9,8 C 8,3 C 85 % 1018,3 hPa 0,0 l/m 0 min 0 min 0,0 UV-I 0 W/m 15,4 km/h (3 Bft)
16.03.2014 06:44 9,8 C 8,3 C 85 % 1018,3 hPa 0,0 l/m 0 min 0 min 0,0 UV-I 0 W/m 15,4 km/h (3 Bft)
16.03.2014 06:46 9,7 C 8,3 C 85 % 1018,3 hPa 0,0 l/m 0 min 0 min 0,0 UV-I 0 W/m 30,9 km/h (5 Bft)
16.03.2014 06:48 9,7 C 8,3 C 86 % 1018,3 hPa 0,0 l/m 0 min 0 min 0,0 UV-I 0 W/m 7,7 km/h (2 Bft)
16.03.2014 06:50 9,7 C 8,3 C 85 % 1018,4 hPa 0,0 l/m 0 min 0 min 0,0 UV-I 0 W/m 12,9 km/h (3 Bft)
16.03.2014 06:52 9,7 C 8,3 C 85 % 1018,3 hPa 0,0 l/m 0 min 0 min 0,0 UV-I 0 W/m 20,6 km/h (4 Bft)
16.03.2014 06:54 9,7 C 8,3 C 85 % 1018,3 hPa 0,0 l/m 0 min 0 min 0,0 UV-I 0 W/m 10,3 km/h (2 Bft)
16.03.2014 06:56 9,7 C 8,3 C 86 % 1018,3 hPa 0,0 l/m 0 min 0 min 0,0 UV-I 0 W/m 15,4 km/h (3 Bft)
16.03.2014 06:58 9,7 C 8,3 C 86 % 1018,3 hPa 0,0 l/m 0 min 0 min 0,0 UV-I 0 W/m 5,1 km/h (1 Bft)
16.03.2014 07:00 9,7 C 8,3 C 86 % 1018,3 hPa 0,0 l/m 0 min 0 min 0,0 UV-I 0 W/m 20,6 km/h (4 Bft)
16.03.2014 07:02 9,7 C 8,3 C 86 % 1018,4 hPa 0,0 l/m 0 min 0 min 0,0 UV-I 0 W/m 7,7 km/h (2 Bft)
16.03.2014 07:06 9,7 C 8,3 C 86 % 1018,5 hPa 0,0 l/m 0 min 0 min 0,0 UV-I 0 W/m 18,0 km/h (3 Bft)
16.03.2014 07:08 9,7 C 8,3 C 86 % 1018,5 hPa 0,0 l/m 0 min 0 min 0,0 UV-I 0 W/m 15,4 km/h (3 Bft)
16.03.2014 07:10 9,7 C 8,3 C 86 % 1018,5 hPa 0,0 l/m 0 min 0 min 0,0 UV-I 5 W/m 23,2 km/h (4 Bft)
16.03.2014 07:12 9,7 C 8,3 C 86 % 1018,5 hPa 0,0 l/m 0 min 0 min 0,0 UV-I 5 W/m 10,3 km/h (2 Bft)
16.03.2014 07:14 9,7 C 8,3 C 86 % 1018,6 hPa 0,0 l/m 0 min 0 min 0,0 UV-I 7 W/m 12,9 km/h (3 Bft)
16.03.2014 07:16 9,7 C 8,3 C 86 % 1018,5 hPa 0,0 l/m 0 min 0 min 0,0 UV-I 7 W/m 10,3 km/h (2 Bft)
16.03.2014 07:18 9,7 C 8,3 C 86 % 1018,6 hPa 0,0 l/m 0 min 0 min 0,0 UV-I 7 W/m 10,3 km/h (2 Bft)
16.03.2014 07:20 9,7 C 8,3 C 86 % 1018,6 hPa 0,0 l/m 0 min 0 min 0,0 UV-I 5 W/m 10,3 km/h (2 Bft)
16.03.2014 07:22 9,7 C 8,3 C 86 % 1018,6 hPa 0,0 l/m 0 min 0 min 0,0 UV-I 7 W/m 20,6 km/h (4 Bft)
16.03.2014 07:24 9,7 C 8,3 C 86 % 1018,6 hPa 0,0 l/m 0 min 0 min 0,0 UV-I 9 W/m 10,3 km/h (2 Bft)
16.03.2014 07:26 9,7 C 8,3 C 86 % 1018,6 hPa 0,0 l/m 0 min 0 min 0,0 UV-I 9 W/m 12,9 km/h (3 Bft)
16.03.2014 07:28 9,7 C 8,3 C 86 % 1018,5 hPa 0,0 l/m 0 min 0 min 0,0 UV-I 11 W/m 5,1 km/h (1 Bft)
16.03.2014 07:30 9,7 C 8,3 C 86 % 1018,5 hPa 0,0 l/m 0 min 0 min 0,0 UV-I 14 W/m 5,1 km/h (1 Bft)
16.03.2014 07:32 9,7 C 8,3 C 86 % 1018,5 hPa 0,0 l/m 0 min 0 min 0,0 UV-I 19 W/m 18,0 km/h (3 Bft)
16.03.2014 07:34 9,7 C 8,9 C 86 % 1018,5 hPa 0,0 l/m 0 min 0 min 0,0 UV-I 23 W/m 18,0 km/h (3 Bft)
16.03.2014 07:36 9,7 C 8,9 C 86 % 1018,4 hPa 0,0 l/m 0 min 0 min 0,0 UV-I 30 W/m 15,4 km/h (3 Bft)
16.03.2014 07:38 9,8 C 8,9 C 86 % 1018,4 hPa 0,0 l/m 0 min 0 min 0,0 UV-I 26 W/m 15,4 km/h (3 Bft)
16.03.2014 07:40 9,8 C 8,9 C 86 % 1018,4 hPa 0,0 l/m 0 min 0 min 0,0 UV-I 25 W/m 10,3 km/h (2 Bft)
16.03.2014 07:42 9,8 C 8,9 C 86 % 1018,5 hPa 0,0 l/m 0 min 0 min 0,0 UV-I 23 W/m 18,0 km/h (3 Bft)
16.03.2014 07:44 9,8 C 8,9 C 86 % 1018,5 hPa 0,0 l/m 0 min 0 min 0,0 UV-I 21 W/m 15,4 km/h (3 Bft)
16.03.2014 07:46 9,8 C 8,9 C 86 % 1018,5 hPa 0,0 l/m 0 min 0 min 0,0 UV-I 21 W/m 10,3 km/h (2 Bft)
16.03.2014 07:48 9,8 C 8,9 C 86 % 1018,5 hPa 0,0 l/m 0 min 0 min 0,0 UV-I 14 W/m 5,1 km/h (1 Bft)
16.03.2014 07:50 9,8 C 8,9 C 86 % 1018,6 hPa 0,0 l/m 0 min 0 min 0,0 UV-I 12 W/m 7,7 km/h (2 Bft)
16.03.2014 07:52 9,8 C 8,9 C 86 % 1018,6 hPa 0,0 l/m 0 min 0 min 0,0 UV-I 14 W/m 10,3 km/h (2 Bft)
16.03.2014 07:54 9,8 C 8,9 C 86 % 1018,7 hPa 0,0 l/m 0 min 0 min 0,0 UV-I 18 W/m 10,3 km/h (2 Bft)
16.03.2014 07:56 9,8 C 8,9 C 86 % 1018,7 hPa 0,0 l/m 0 min 0 min 0,0 UV-I 19 W/m 12,9 km/h (3 Bft)
16.03.2014 07:58 9,8 C 8,9 C 86 % 1018,7 hPa 0,0 l/m 0 min 0 min 0,0 UV-I 21 W/m 15,4 km/h (3 Bft)
16.03.2014 08:00 9,8 C 8,9 C 86 % 1018,7 hPa 0,0 l/m 0 min 0 min 0,0 UV-I 25 W/m 2,6 km/h (1 Bft)
16.03.2014 08:02 9,8 C 8,9 C 86 % 1018,6 hPa 0,0 l/m 0 min 0 min 0,0 UV-I 26 W/m 12,9 km/h (3 Bft)
16.03.2014 08:06 9,8 C 8,9 C 86 % 1018,7 hPa 0,0 l/m 0 min 0 min 0,0 UV-I 26 W/m 18,0 km/h (3 Bft)
16.03.2014 08:08 9,8 C 8,9 C 86 % 1018,8 hPa 0,0 l/m 0 min 0 min 0,0 UV-I 26 W/m 12,9 km/h (3 Bft)
16.03.2014 08:10 9,8 C 8,9 C 86 % 1018,9 hPa 0,0 l/m 0 min 0 min 0,0 UV-I 25 W/m 15,4 km/h (3 Bft)
16.03.2014 08:12 9,8 C 8,9 C 86 % 1018,8 hPa 0,0 l/m 0 min 0 min 0,0 UV-I 28 W/m 5,1 km/h (1 Bft)
16.03.2014 08:14 9,8 C 8,9 C 86 % 1018,7 hPa 0,0 l/m 0 min 0 min 0,0 UV-I 26 W/m 12,9 km/h (3 Bft)
16.03.2014 08:16 9,8 C 8,9 C 86 % 1018,7 hPa 0,0 l/m 0 min 0 min 0,0 UV-I 26 W/m 10,3 km/h (2 Bft)
16.03.2014 08:18 9,8 C 8,9 C 86 % 1018,7 hPa 0,0 l/m 0 min 0 min 0,0 UV-I 26 W/m 12,9 km/h (3 Bft)
16.03.2014 08:20 9,8 C 8,9 C 86 % 1018,9 hPa 0,0 l/m 0 min 0 min 0,0 UV-I 32 W/m 2,6 km/h (1 Bft)
16.03.2014 08:22 9,8 C 8,9 C 86 % 1018,9 hPa 0,0 l/m 0 min 0 min 0,0 UV-I 35 W/m 12,9 km/h (3 Bft)
16.03.2014 08:24 9,8 C 8,9 C 86 % 1018,7 hPa 0,0 l/m 0 min 0 min 0,0 UV-I 39 W/m 12,9 km/h (3 Bft)
16.03.2014 08:26 9,8 C 8,9 C 86 % 1018,7 hPa 0,0 l/m 0 min 0 min 0,0 UV-I 39 W/m 7,7 km/h (2 Bft)
16.03.2014 08:28 9,8 C 8,9 C 86 % 1018,6 hPa 0,0 l/m 0 min 0 min 0,0 UV-I 42 W/m 10,3 km/h (2 Bft)
16.03.2014 08:30 9,8 C 8,9 C 86 % 1018,7 hPa 0,0 l/m 0 min 0 min 0,0 UV-I 42 W/m 15,4 km/h (3 Bft)
16.03.2014 08:32 9,8 C 8,9 C 86 % 1018,7 hPa 0,0 l/m 0 min 0 min 0,0 UV-I 37 W/m 10,3 km/h (2 Bft)
16.03.2014 08:34 9,8 C 8,9 C 86 % 1018,8 hPa 0,0 l/m 0 min 0 min 0,0 UV-I 39 W/m 23,2 km/h (4 Bft)
16.03.2014 08:36 9,8 C 8,9 C 86 % 1018,7 hPa 0,0 l/m 0 min 0 min 0,0 UV-I 42 W/m 12,9 km/h (3 Bft)
16.03.2014 08:38 9,8 C 8,9 C 86 % 1018,7 hPa 0,0 l/m 0 min 0 min 0,0 UV-I 44 W/m 7,7 km/h (2 Bft)
16.03.2014 08:40 9,9 C 8,9 C 86 % 1018,8 hPa 0,0 l/m 0 min 0 min 0,0 UV-I 44 W/m 5,1 km/h (1 Bft)
16.03.2014 08:42 9,8 C 8,9 C 86 % 1018,9 hPa 0,0 l/m 0 min 0 min 0,0 UV-I 37 W/m 5,1 km/h (1 Bft)
16.03.2014 08:44 9,9 C 8,9 C 86 % 1018,8 hPa 0,0 l/m 0 min 0 min 0,0 UV-I 33 W/m 7,7 km/h (2 Bft)
16.03.2014 08:46 9,8 C 8,9 C 86 % 1018,9 hPa 0,0 l/m 0 min 0 min 0,0 UV-I 26 W/m 18,0 km/h (3 Bft)
16.03.2014 08:48 9,8 C 8,9 C 86 % 1019,1 hPa 0,0 l/m 0 min 0 min 0,0 UV-I 25 W/m 12,9 km/h (3 Bft)
16.03.2014 08:50 9,8 C 8,9 C 86 % 1019,1 hPa 0,0 l/m 0 min 0 min 0,0 UV-I 40 W/m 7,7 km/h (2 Bft)
16.03.2014 08:52 9,8 C 8,9 C 87 % 1019,1 hPa 0,0 l/m 0 min 0 min 0,0 UV-I 37 W/m 12,9 km/h (3 Bft)
16.03.2014 08:54 9,8 C 8,9 C 87 % 1019,2 hPa 0,0 l/m 0 min 0 min 0,0 UV-I 33 W/m 10,3 km/h (2 Bft)
16.03.2014 08:56 9,7 C 8,9 C 87 % 1019,0 hPa 0,0 l/m 0 min 0 min 0,0 UV-I 47 W/m 23,2 km/h (4 Bft)
16.03.2014 08:58 9,7 C 8,9 C 87 % 1019,0 hPa 0,0 l/m 0 min 0 min 0,0 UV-I 44 W/m 5,1 km/h (1 Bft)
16.03.2014 09:00 9,7 C 8,9 C 87 % 1018,9 hPa 0,0 l/m 0 min 0 min 0,0 UV-I 49 W/m 10,3 km/h (2 Bft)
16.03.2014 09:02 9,7 C 8,9 C 87 % 1019,0 hPa 0,0 l/m 0 min 0 min 0,0 UV-I 51 W/m 15,4 km/h (3 Bft)
16.03.2014 09:06 9,7 C 8,9 C 87 % 1019,1 hPa 0,0 l/m 0 min 0 min 0,0 UV-I 46 W/m 15,4 km/h (3 Bft)
16.03.2014 09:08 9,7 C 8,9 C 87 % 1019,1 hPa 0,0 l/m 0 min 0 min 0,0 UV-I 51 W/m 15,4 km/h (3 Bft)
16.03.2014 09:10 9,7 C 8,9 C 87 % 1019,1 hPa 0,0 l/m 0 min 0 min 0,0 UV-I 53 W/m 12,9 km/h (3 Bft)
16.03.2014 09:12 9,7 C 8,9 C 87 % 1019,2 hPa 0,0 l/m 0 min 0 min 0,0 UV-I 54 W/m 7,7 km/h (2 Bft)
16.03.2014 09:14 9,7 C 8,9 C 87 % 1019,2 hPa 0,0 l/m 0 min 0 min 0,0 UV-I 54 W/m 20,6 km/h (4 Bft)
16.03.2014 09:16 9,7 C 8,9 C 87 % 1019,2 hPa 0,0 l/m 0 min 0 min 0,0 UV-I 53 W/m 10,3 km/h (2 Bft)
16.03.2014 09:18 9,7 C 8,9 C 87 % 1019,2 hPa 0,0 l/m 0 min 0 min 0,0 UV-I 51 W/m 18,0 km/h (3 Bft)
16.03.2014 09:20 9,7 C 8,9 C 87 % 1019,3 hPa 0,0 l/m 0 min 0 min 0,0 UV-I 53 W/m 18,0 km/h (3 Bft)
16.03.2014 09:22 9,7 C 8,9 C 87 % 1019,3 hPa 0,0 l/m 0 min 0 min 0,0 UV-I 49 W/m 15,4 km/h (3 Bft)
16.03.2014 09:24 9,7 C 8,9 C 87 % 1019,3 hPa 0,0 l/m 0 min 0 min 0,0 UV-I 51 W/m 15,4 km/h (3 Bft)
16.03.2014 09:26 9,7 C 8,9 C 87 % 1019,4 hPa 0,0 l/m 0 min 0 min 0,0 UV-I 49 W/m 15,4 km/h (3 Bft)
16.03.2014 09:28 9,7 C 8,9 C 87 % 1019,5 hPa 0,0 l/m 0 min 0 min 0,0 UV-I 42 W/m 12,9 km/h (3 Bft)
16.03.2014 09:30 9,7 C 8,9 C 87 % 1019,5 hPa 0,0 l/m 0 min 0 min 0,0 UV-I 46 W/m 12,9 km/h (3 Bft)
16.03.2014 09:32 9,7 C 8,9 C 87 % 1019,5 hPa 0,0 l/m 0 min 0 min 0,0 UV-I 44 W/m 23,2 km/h (4 Bft)
16.03.2014 09:34 9,7 C 8,9 C 87 % 1019,5 hPa 0,0 l/m 0 min 0 min 0,0 UV-I 47 W/m 18,0 km/h (3 Bft)
16.03.2014 09:36 9,6 C 8,9 C 87 % 1019,5 hPa 0,0 l/m 0 min 0 min 0,0 UV-I 46 W/m 18,0 km/h (3 Bft)
16.03.2014 09:38 9,6 C 8,9 C 87 % 1019,5 hPa 0,0 l/m 0 min 0 min 0,0 UV-I 47 W/m 23,2 km/h (4 Bft)
16.03.2014 09:40 9,6 C 8,9 C 87 % 1019,5 hPa 0,0 l/m 0 min 0 min 0,0 UV-I 49 W/m 12,9 km/h (3 Bft)
16.03.2014 09:42 9,6 C 8,9 C 87 % 1019,4 hPa 0,0 l/m 0 min 0 min 0,0 UV-I 47 W/m 23,2 km/h (4 Bft)
16.03.2014 09:44 9,6 C 8,9 C 87 % 1019,4 hPa 0,0 l/m 0 min 0 min 0,0 UV-I 54 W/m 10,3 km/h (2 Bft)
16.03.2014 09:46 9,6 C 8,9 C 87 % 1019,5 hPa 0,0 l/m 0 min 0 min 0,0 UV-I 54 W/m 15,4 km/h (3 Bft)
16.03.2014 09:48 9,6 C 8,9 C 87 % 1019,5 hPa 0,0 l/m 0 min 0 min 0,0 UV-I 54 W/m 15,4 km/h (3 Bft)
16.03.2014 09:50 9,6 C 8,9 C 87 % 1019,5 hPa 0,0 l/m 0 min 0 min 0,0 UV-I 56 W/m 20,6 km/h (4 Bft)
16.03.2014 09:52 9,6 C 8,9 C 87 % 1019,5 hPa 0,0 l/m 0 min 0 min 0,0 UV-I 54 W/m 10,3 km/h (2 Bft)
16.03.2014 09:54 9,6 C 8,9 C 87 % 1019,5 hPa 0,0 l/m 0 min 0 min 0,0 UV-I 54 W/m 15,4 km/h (3 Bft)
16.03.2014 09:56 9,6 C 8,9 C 87 % 1019,6 hPa 0,0 l/m 0 min 0 min 0,0 UV-I 60 W/m 15,4 km/h (3 Bft)
16.03.2014 09:58 9,7 C 8,9 C 88 % 1019,6 hPa 0,0 l/m 0 min 0 min 0,0 UV-I 60 W/m 12,9 km/h (3 Bft)
16.03.2014 10:00 9,7 C 8,9 C 88 % 1019,6 hPa 0,0 l/m 0 min 0 min 0,0 UV-I 69 W/m 15,4 km/h (3 Bft)
16.03.2014 10:02 9,7 C 8,9 C 88 % 1019,6 hPa 0,0 l/m 0 min 0 min 0,0 UV-I 72 W/m 12,9 km/h (3 Bft)
16.03.2014 10:06 9,7 C 8,9 C 88 % 1019,6 hPa 0,0 l/m 0 min 0 min 0,0 UV-I 76 W/m 15,4 km/h (3 Bft)
16.03.2014 10:08 9,7 C 8,9 C 88 % 1019,5 hPa 0,0 l/m 0 min 0 min 0,0 UV-I 76 W/m 10,3 km/h (2 Bft)
16.03.2014 10:10 9,7 C 8,9 C 88 % 1019,5 hPa 0,0 l/m 0 min 0 min 0,0 UV-I 79 W/m 5,1 km/h (1 Bft)
16.03.2014 10:12 9,7 C 8,9 C 88 % 1019,5 hPa 0,0 l/m 0 min 0 min 0,0 UV-I 76 W/m 10,3 km/h (2 Bft)
16.03.2014 10:14 9,8 C 8,9 C 88 % 1019,5 hPa 0,0 l/m 0 min 0 min 0,0 UV-I 74 W/m 7,7 km/h (2 Bft)
16.03.2014 10:16 9,8 C 8,9 C 88 % 1019,6 hPa 0,0 l/m 0 min 0 min 0,0 UV-I 83 W/m 12,9 km/h (3 Bft)
16.03.2014 10:18 9,8 C 9,4 C 87 % 1019,5 hPa 0,0 l/m 0 min 0 min 0,0 UV-I 86 W/m 12,9 km/h (3 Bft)
16.03.2014 10:20 9,8 C 8,9 C 88 % 1019,3 hPa 0,0 l/m 0 min 0 min 0,0 UV-I 83 W/m 15,4 km/h (3 Bft)
16.03.2014 10:22 9,8 C 9,4 C 88 % 1019,4 hPa 0,0 l/m 0 min 0 min 0,0 UV-I 86 W/m 12,9 km/h (3 Bft)
16.03.2014 10:24 9,8 C 9,4 C 88 % 1019,3 hPa 0,0 l/m 0 min 0 min 0,0 UV-I 91 W/m 10,3 km/h (2 Bft)
16.03.2014 10:26 9,8 C 9,4 C 88 % 1019,4 hPa 0,0 l/m 0 min 0 min 0,0 UV-I 98 W/m 12,9 km/h (3 Bft)
16.03.2014 10:28 9,8 C 9,4 C 88 % 1019,3 hPa 0,0 l/m 0 min 0 min 0,0 UV-I 97 W/m 7,7 km/h (2 Bft)
16.03.2014 10:30 9,9 C 9,4 C 88 % 1019,3 hPa 0,0 l/m 0 min 0 min 0,0 UV-I 97 W/m 7,7 km/h (2 Bft)
16.03.2014 10:32 9,9 C 9,4 C 88 % 1019,3 hPa 0,0 l/m 0 min 0 min 0,0 UV-I 100 W/m 12,9 km/h (3 Bft)
16.03.2014 10:34 9,9 C 9,4 C 88 % 1019,3 hPa 0,0 l/m 0 min 0 min 0,0 UV-I 107 W/m 12,9 km/h (3 Bft)
16.03.2014 10:36 9,9 C 9,4 C 87 % 1019,3 hPa 0,0 l/m 0 min 0 min 0,0 UV-I 113 W/m 15,4 km/h (3 Bft)
16.03.2014 10:38 9,9 C 9,4 C 87 % 1019,3 hPa 0,0 l/m 0 min 0 min 0,0 UV-I 120 W/m 12,9 km/h (3 Bft)
16.03.2014 10:40 10,0 C 9,4 C 87 % 1019,3 hPa 0,0 l/m 0 min 0 min 0,0 UV-I 116 W/m 7,7 km/h (2 Bft)
16.03.2014 10:42 10,0 C 9,4 C 87 % 1019,4 hPa 0,0 l/m 0 min 0 min 0,0 UV-I 121 W/m 12,9 km/h (3 Bft)
16.03.2014 10:44 10,1 C 9,4 C 87 % 1019,3 hPa 0,0 l/m 0 min 0 min 0,0 UV-I 132 W/m 12,9 km/h (3 Bft)
16.03.2014 10:46 10,1 C 10,0 C 87 % 1019,4 hPa 0,0 l/m 0 min 0 min 0,0 UV-I 135 W/m 28,3 km/h (4 Bft)
16.03.2014 10:48 10,1 C 10,0 C 87 % 1019,3 hPa 0,0 l/m 0 min 0 min 0,0 UV-I 139 W/m 7,7 km/h (2 Bft)
16.03.2014 10:50 10,2 C 10,0 C 87 % 1019,4 hPa 0,0 l/m 0 min 0 min 0,0 UV-I 134 W/m 18,0 km/h (3 Bft)
16.03.2014 10:52 10,2 C 10,0 C 87 % 1019,5 hPa 0,0 l/m 0 min 0 min 0,0 UV-I 137 W/m 10,3 km/h (2 Bft)
16.03.2014 10:54 10,3 C 10,0 C 87 % 1019,5 hPa 0,0 l/m 0 min 0 min 0,0 UV-I 135 W/m 12,9 km/h (3 Bft)
16.03.2014 10:56 10,3 C 10,0 C 87 % 1019,5 hPa 0,0 l/m 0 min 0 min 0,0 UV-I 123 W/m 25,7 km/h (4 Bft)
16.03.2014 10:58 10,3 C 10,0 C 87 % 1019,6 hPa 0,0 l/m 0 min 0 min 0,0 UV-I 132 W/m 12,9 km/h (3 Bft)
16.03.2014 11:00 10,3 C 10,0 C 87 % 1019,6 hPa 0,0 l/m 0 min 0 min 0,0 UV-I 130 W/m 7,7 km/h (2 Bft)
16.03.2014 11:02 10,4 C 10,0 C 87 % 1019,5 hPa 0,0 l/m 0 min 0 min 0,0 UV-I 123 W/m 5,1 km/h (1 Bft)
16.03.2014 11:06 10,4 C 10,0 C 87 % 1019,5 hPa 0,0 l/m 0 min 0 min 0,0 UV-I 125 W/m 12,9 km/h (3 Bft)
16.03.2014 11:08 10,4 C 10,0 C 86 % 1019,5 hPa 0,0 l/m 0 min 0 min 0,0 UV-I 109 W/m 18,0 km/h (3 Bft)
16.03.2014 11:10 10,4 C 10,0 C 86 % 1019,6 hPa 0,0 l/m 0 min 0 min 0,0 UV-I 116 W/m 12,9 km/h (3 Bft)
16.03.2014 11:12 10,4 C 10,0 C 86 % 1019,5 hPa 0,0 l/m 0 min 0 min 0,0 UV-I 130 W/m 15,4 km/h (3 Bft)
16.03.2014 11:14 10,5 C 10,0 C 86 % 1019,4 hPa 0,0 l/m 0 min 0 min 0,5 UV-I 151 W/m 15,4 km/h (3 Bft)
16.03.2014 11:16 10,5 C 10,0 C 86 % 1019,4 hPa 0,0 l/m 0 min 0 min 0,5 UV-I 153 W/m 7,7 km/h (2 Bft)
16.03.2014 11:18 10,6 C 10,6 C 86 % 1019,5 hPa 0,0 l/m 0 min 0 min 0,0 UV-I 146 W/m 18,0 km/h (3 Bft)
16.03.2014 11:20 10,6 C 10,6 C 86 % 1019,6 hPa 0,0 l/m 0 min 0 min 0,0 UV-I 132 W/m 10,3 km/h (2 Bft)
16.03.2014 11:22 10,6 C 10,6 C 86 % 1019,6 hPa 0,0 l/m 0 min 0 min 0,0 UV-I 130 W/m 20,6 km/h (4 Bft)
16.03.2014 11:24 10,7 C 10,6 C 86 % 1019,6 hPa 0,0 l/m 0 min 0 min 0,0 UV-I 144 W/m 12,9 km/h (3 Bft)
16.03.2014 11:26 10,7 C 10,6 C 86 % 1019,6 hPa 0,0 l/m 0 min 0 min 0,0 UV-I 142 W/m 12,9 km/h (3 Bft)
16.03.2014 11:28 10,7 C 10,6 C 86 % 1019,6 hPa 0,0 l/m 0 min 0 min 0,0 UV-I 139 W/m 23,2 km/h (4 Bft)
16.03.2014 11:30 10,7 C 10,6 C 85 % 1019,6 hPa 0,0 l/m 0 min 0 min 0,0 UV-I 148 W/m 23,2 km/h (4 Bft)
16.03.2014 11:32 10,7 C 10,6 C 85 % 1019,6 hPa 0,0 l/m 0 min 0 min 0,0 UV-I 169 W/m 12,9 km/h (3 Bft)
16.03.2014 11:34 10,8 C 10,6 C 85 % 1019,6 hPa 0,0 l/m 0 min 0 min 0,0 UV-I 171 W/m 15,4 km/h (3 Bft)
16.03.2014 11:36 10,9 C 10,6 C 85 % 1019,5 hPa 0,0 l/m 0 min 0 min 0,0 UV-I 172 W/m 15,4 km/h (3 Bft)
16.03.2014 11:38 10,9 C 11,1 C 85 % 1019,6 hPa 0,0 l/m 0 min 0 min 0,7 UV-I 213 W/m 12,9 km/h (3 Bft)
16.03.2014 11:40 11,1 C 11,1 C 85 % 1019,5 hPa 0,0 l/m 0 min 0 min 0,7 UV-I 220 W/m 2,6 km/h (1 Bft)
16.03.2014 11:42 11,2 C 11,1 C 85 % 1019,5 hPa 0,0 l/m 0 min 0 min 0,9 UV-I 251 W/m 10,3 km/h (2 Bft)
16.03.2014 11:44 11,3 C 11,7 C 85 % 1019,5 hPa 0,0 l/m 0 min 0 min 0,9 UV-I 248 W/m 2,6 km/h (1 Bft)
16.03.2014 11:46 11,5 C 11,7 C 84 % 1019,4 hPa 0,0 l/m 0 min 0 min 1,0 UV-I 221 W/m 5,1 km/h (1 Bft)
16.03.2014 11:48 11,6 C 11,7 C 84 % 1019,5 hPa 0,0 l/m 0 min 0 min 1,0 UV-I 223 W/m 18,0 km/h (3 Bft)
16.03.2014 11:50 11,6 C 11,7 C 83 % 1019,3 hPa 0,0 l/m 0 min 0 min 0,9 UV-I 218 W/m 15,4 km/h (3 Bft)
16.03.2014 11:52 11,5 C 11,7 C 83 % 1019,4 hPa 0,0 l/m 0 min 0 min 0,8 UV-I 207 W/m 12,9 km/h (3 Bft)
16.03.2014 11:54 11,5 C 11,7 C 83 % 1019,4 hPa 0,0 l/m 0 min 0 min 0,7 UV-I 192 W/m 18,0 km/h (3 Bft)
16.03.2014 11:56 11,5 C 11,7 C 83 % 1019,5 hPa 0,0 l/m 0 min 0 min 0,6 UV-I 181 W/m 15,4 km/h (3 Bft)
16.03.2014 11:58 11,5 C 11,7 C 83 % 1019,5 hPa 0,0 l/m 0 min 0 min 0,6 UV-I 176 W/m 15,4 km/h (3 Bft)
16.03.2014 12:00 11,4 C 11,1 C 83 % 1019,5 hPa 0,0 l/m 0 min 0 min 0,5 UV-I 179 W/m 20,6 km/h (4 Bft)
16.03.2014 12:02 11,4 C 11,1 C 83 % 1019,5 hPa 0,0 l/m 0 min 0 min 0,6 UV-I 190 W/m 7,7 km/h (2 Bft)
16.03.2014 12:06 11,5 C 11,7 C 83 % 1019,6 hPa 0,0 l/m 0 min 0 min 0,6 UV-I 188 W/m 15,4 km/h (3 Bft)
16.03.2014 12:08 11,6 C 11,7 C 83 % 1019,5 hPa 0,0 l/m 0 min 0 min 0,8 UV-I 214 W/m 12,9 km/h (3 Bft)
16.03.2014 12:10 11,6 C 11,7 C 83 % 1019,5 hPa 0,0 l/m 0 min 0 min 0,8 UV-I 218 W/m 25,7 km/h (4 Bft)
16.03.2014 12:12 11,6 C 11,7 C 83 % 1019,5 hPa 0,0 l/m 0 min 0 min 0,8 UV-I 207 W/m 15,4 km/h (3 Bft)
16.03.2014 12:14 11,7 C 11,7 C 83 % 1019,4 hPa 0,0 l/m 0 min 0 min 0,7 UV-I 211 W/m 18,0 km/h (3 Bft)
16.03.2014 12:16 11,7 C 11,7 C 83 % 1019,4 hPa 0,0 l/m 0 min 0 min 0,6 UV-I 192 W/m 15,4 km/h (3 Bft)
16.03.2014 12:18 11,7 C 11,7 C 82 % 1019,4 hPa 0,0 l/m 0 min 0 min 0,7 UV-I 202 W/m 25,7 km/h (4 Bft)
16.03.2014 12:20 11,7 C 11,7 C 82 % 1019,3 hPa 0,0 l/m 0 min 0 min 0,6 UV-I 195 W/m 25,7 km/h (4 Bft)
16.03.2014 12:22 11,7 C 11,7 C 82 % 1019,4 hPa 0,0 l/m 0 min 0 min 0,6 UV-I 188 W/m 5,1 km/h (1 Bft)
16.03.2014 12:24 11,7 C 11,7 C 82 % 1019,4 hPa 0,0 l/m 0 min 0 min 0,6 UV-I 181 W/m 20,6 km/h (4 Bft)
16.03.2014 12:26 11,7 C 11,7 C 82 % 1019,4 hPa 0,0 l/m 0 min 0 min 0,6 UV-I 181 W/m 18,0 km/h (3 Bft)
16.03.2014 12:28 11,7 C 11,7 C 82 % 1019,4 hPa 0,0 l/m 0 min 0 min 0,0 UV-I 162 W/m 28,3 km/h (4 Bft)
16.03.2014 12:30 11,7 C 11,7 C 82 % 1019,3 hPa 0,0 l/m 0 min 0 min 0,5 UV-I 171 W/m 12,9 km/h (3 Bft)
16.03.2014 12:32 11,7 C 11,7 C 82 % 1019,4 hPa 0,0 l/m 0 min 0 min 0,5 UV-I 167 W/m 20,6 km/h (4 Bft)
16.03.2014 12:34 11,7 C 11,7 C 82 % 1019,4 hPa 0,0 l/m 0 min 0 min 0,0 UV-I 163 W/m 28,3 km/h (4 Bft)
16.03.2014 12:36 11,8 C 11,7 C 83 % 1019,3 hPa 0,0 l/m 0 min 0 min 0,5 UV-I 185 W/m 18,0 km/h (3 Bft)
16.03.2014 12:38 11,9 C 11,7 C 82 % 1019,2 hPa 0,0 l/m 0 min 0 min 0,7 UV-I 209 W/m 18,0 km/h (3 Bft)
16.03.2014 12:40 11,9 C 11,7 C 82 % 1019,2 hPa 0,0 l/m 0 min 0 min 0,8 UV-I 223 W/m 20,6 km/h (4 Bft)
16.03.2014 12:42 12,1 C 12,2 C 82 % 1019,2 hPa 0,0 l/m 0 min 0 min 0,9 UV-I 232 W/m 10,3 km/h (2 Bft)
16.03.2014 12:44 12,2 C 12,2 C 82 % 1019,2 hPa 0,0 l/m 0 min 0 min 0,9 UV-I 239 W/m 12,9 km/h (3 Bft)
16.03.2014 12:46 12,2 C 12,2 C 81 % 1019,2 hPa 0,0 l/m 0 min 0 min 0,8 UV-I 230 W/m 15,4 km/h (3 Bft)
16.03.2014 12:48 12,2 C 12,2 C 81 % 1019,2 hPa 0,0 l/m 0 min 0 min 0,8 UV-I 236 W/m 12,9 km/h (3 Bft)
16.03.2014 12:50 12,3 C 12,2 C 81 % 1019,2 hPa 0,0 l/m 0 min 0 min 0,7 UV-I 206 W/m 18,0 km/h (3 Bft)
16.03.2014 12:52 12,4 C 12,2 C 82 % 1019,1 hPa 0,0 l/m 0 min 0 min 0,7 UV-I 197 W/m 0,0 km/h (0 Bft)
16.03.2014 12:54 12,5 C 12,2 C 81 % 1019,1 hPa 0,0 l/m 0 min 0 min 1,0 UV-I 285 W/m 20,6 km/h (4 Bft)
16.03.2014 12:56 12,6 C 12,8 C 81 % 1019,1 hPa 0,0 l/m 0 min 0 min 0,9 UV-I 265 W/m 10,3 km/h (2 Bft)
16.03.2014 12:58 12,6 C 12,8 C 81 % 1019,1 hPa 0,0 l/m 0 min 0 min 0,9 UV-I 281 W/m 12,9 km/h (3 Bft)
16.03.2014 13:00 12,8 C 12,8 C 80 % 1019,0 hPa 0,0 l/m 0 min 0 min 1,8 UV-I 306 W/m 7,7 km/h (2 Bft)
16.03.2014 13:02 13,1 C 13,3 C 80 % 1019,0 hPa 0,0 l/m 2 min 0 min 1,2 UV-I 343 W/m 10,3 km/h (2 Bft)
16.03.2014 13:06 13,1 C 13,3 C 79 % 1018,8 hPa 0,0 l/m 2 min 0 min 1,5 UV-I 355 W/m 23,2 km/h (4 Bft)
16.03.2014 13:08 13,0 C 13,3 C 79 % 1018,8 hPa 0,0 l/m 2 min 0 min 1,3 UV-I 343 W/m 28,3 km/h (4 Bft)
16.03.2014 13:10 13,0 C 12,8 C 79 % 1018,8 hPa 0,0 l/m 0 min 0 min 1,2 UV-I 294 W/m 12,9 km/h (3 Bft)
16.03.2014 13:12 13,0 C 12,8 C 79 % 1018,7 hPa 0,0 l/m 2 min 0 min 1,7 UV-I 399 W/m 18,0 km/h (3 Bft)
16.03.2014 13:14 13,1 C 13,3 C 79 % 1018,7 hPa 0,0 l/m 0 min 0 min 1,5 UV-I 320 W/m 25,7 km/h (4 Bft)
16.03.2014 13:16 13,2 C 13,3 C 79 % 1018,8 hPa 0,0 l/m 0 min 0 min 1,3 UV-I 313 W/m 20,6 km/h (4 Bft)
16.03.2014 13:18 13,2 C 13,3 C 79 % 1018,7 hPa 0,0 l/m 2 min 0 min 2,0 UV-I 339 W/m 20,6 km/h (4 Bft)
16.03.2014 13:20 13,3 C 13,3 C 78 % 1018,7 hPa 0,0 l/m 2 min 0 min 1,6 UV-I 547 W/m 18,0 km/h (3 Bft)
16.03.2014 13:22 13,3 C 13,3 C 78 % 1018,6 hPa 0,0 l/m 2 min 0 min 1,6 UV-I 404 W/m 18,0 km/h (3 Bft)
16.03.2014 13:24 13,3 C 13,3 C 78 % 1018,7 hPa 0,0 l/m 0 min 0 min 1,1 UV-I 320 W/m 23,2 km/h (4 Bft)
16.03.2014 13:26 13,3 C 13,3 C 78 % 1018,7 hPa 0,0 l/m 2 min 0 min 1,1 UV-I 357 W/m 18,0 km/h (3 Bft)
16.03.2014 13:28 13,3 C 13,3 C 78 % 1018,7 hPa 0,0 l/m 2 min 0 min 1,2 UV-I 411 W/m 10,3 km/h (2 Bft)
16.03.2014 13:30 13,5 C 13,9 C 78 % 1018,7 hPa 0,0 l/m 2 min 0 min 2,0 UV-I 464 W/m 28,3 km/h (4 Bft)
16.03.2014 13:32 13,8 C 13,9 C 78 % 1018,7 hPa 0,0 l/m 2 min 0 min 2,2 UV-I 761 W/m 15,4 km/h (3 Bft)
16.03.2014 13:34 14,2 C 14,4 C 80 % 1018,7 hPa 0,0 l/m 2 min 0 min 2,3 UV-I 673 W/m 23,2 km/h (4 Bft)
16.03.2014 13:36 14,3 C 15,0 C 77 % 1018,7 hPa 0,0 l/m 2 min 0 min 1,7 UV-I 464 W/m 20,6 km/h (4 Bft)
16.03.2014 13:38 14,3 C 14,4 C 75 % 1018,6 hPa 0,0 l/m 2 min 0 min 1,4 UV-I 464 W/m 23,2 km/h (4 Bft)
16.03.2014 13:40 14,2 C 13,9 C 75 % 1018,5 hPa 0,0 l/m 2 min 0 min 2,2 UV-I 619 W/m 28,3 km/h (4 Bft)
16.03.2014 13:42 14,2 C 13,9 C 75 % 1018,6 hPa 0,0 l/m 2 min 0 min 1,3 UV-I 613 W/m 18,0 km/h (3 Bft)
16.03.2014 13:44 14,2 C 13,9 C 74 % 1018,6 hPa 0,0 l/m 0 min 0 min 1,2 UV-I 250 W/m 33,5 km/h (5 Bft)
16.03.2014 13:46 14,2 C 13,9 C 75 % 1018,6 hPa 0,0 l/m 2 min 0 min 1,3 UV-I 345 W/m 20,6 km/h (4 Bft)
16.03.2014 13:48 14,1 C 13,9 C 76 % 1018,6 hPa 0,0 l/m 0 min 0 min 1,0 UV-I 288 W/m 15,4 km/h (3 Bft)
16.03.2014 13:50 14,1 C 13,9 C 76 % 1018,6 hPa 0,0 l/m 2 min 0 min 1,5 UV-I 387 W/m 10,3 km/h (2 Bft)
16.03.2014 13:52 14,2 C 13,9 C 77 % 1018,6 hPa 0,0 l/m 2 min 0 min 1,6 UV-I 322 W/m 15,4 km/h (3 Bft)
16.03.2014 13:54 14,2 C 13,9 C 76 % 1018,5 hPa 0,0 l/m 0 min 0 min 1,0 UV-I 274 W/m 12,9 km/h (3 Bft)
16.03.2014 13:56 14,2 C 13,9 C 76 % 1018,5 hPa 0,0 l/m 0 min 0 min 0,8 UV-I 283 W/m 20,6 km/h (4 Bft)
16.03.2014 13:58 14,2 C 13,9 C 77 % 1018,6 hPa 0,0 l/m 0 min 0 min 0,7 UV-I 234 W/m 18,0 km/h (3 Bft)
16.03.2014 14:00 14,1 C 13,9 C 76 % 1018,5 hPa 0,0 l/m 0 min 0 min 0,6 UV-I 207 W/m 20,6 km/h (4 Bft)
16.03.2014 14:02 14,0 C 13,9 C 76 % 1018,5 hPa 0,0 l/m 0 min 0 min 0,5 UV-I 192 W/m 10,3 km/h (2 Bft)
16.03.2014 14:06 13,9 C 13,3 C 76 % 1018,5 hPa 0,0 l/m 0 min 0 min 0,0 UV-I 141 W/m 18,0 km/h (3 Bft)
16.03.2014 14:08 13,8 C 13,3 C 76 % 1018,4 hPa 0,0 l/m 0 min 0 min 0,0 UV-I 171 W/m 15,4 km/h (3 Bft)
16.03.2014 14:10 13,7 C 13,3 C 77 % 1018,4 hPa 0,0 l/m 0 min 0 min 0,0 UV-I 165 W/m 25,7 km/h (4 Bft)
16.03.2014 14:12 13,7 C 13,3 C 76 % 1018,4 hPa 0,0 l/m 0 min 0 min 0,0 UV-I 148 W/m 18,0 km/h (3 Bft)
16.03.2014 14:14 13,7 C 13,3 C 77 % 1018,4 hPa 0,0 l/m 0 min 0 min 0,0 UV-I 158 W/m 28,3 km/h (4 Bft)
16.03.2014 14:16 13,7 C 13,3 C 76 % 1018,4 hPa 0,0 l/m 0 min 0 min 0,0 UV-I 172 W/m 18,0 km/h (3 Bft)
16.03.2014 14:18 13,8 C 13,3 C 76 % 1018,4 hPa 0,0 l/m 0 min 0 min 0,0 UV-I 128 W/m 12,9 km/h (3 Bft)
16.03.2014 14:20 13,8 C 12,8 C 76 % 1018,5 hPa 0,0 l/m 0 min 0 min 0,0 UV-I 109 W/m 28,3 km/h (4 Bft)
16.03.2014 14:22 13,8 C 12,8 C 76 % 1018,4 hPa 0,0 l/m 0 min 0 min 0,0 UV-I 109 W/m 12,9 km/h (3 Bft)
16.03.2014 14:24 13,7 C 12,8 C 76 % 1018,4 hPa 0,0 l/m 0 min 0 min 0,0 UV-I 114 W/m 15,4 km/h (3 Bft)
16.03.2014 14:26 13,7 C 12,8 C 76 % 1018,4 hPa 0,0 l/m 0 min 0 min 0,0 UV-I 97 W/m 15,4 km/h (3 Bft)
16.03.2014 14:28 13,7 C 12,8 C 76 % 1018,4 hPa 0,0 l/m 0 min 0 min 0,0 UV-I 114 W/m 15,4 km/h (3 Bft)
16.03.2014 14:30 13,7 C 12,8 C 76 % 1018,4 hPa 0,0 l/m 0 min 0 min 0,0 UV-I 146 W/m 18,0 km/h (3 Bft)
16.03.2014 14:32 13,6 C 12,8 C 76 % 1018,4 hPa 0,0 l/m 0 min 0 min 0,0 UV-I 127 W/m 25,7 km/h (4 Bft)
16.03.2014 14:34 13,6 C 12,8 C 76 % 1018,4 hPa 0,0 l/m 0 min 0 min 0,0 UV-I 111 W/m 10,3 km/h (2 Bft)
16.03.2014 14:36 13,7 C 12,8 C 76 % 1018,4 hPa 0,0 l/m 0 min 0 min 0,0 UV-I 123 W/m 2,6 km/h (1 Bft)
16.03.2014 14:38 13,7 C 12,8 C 76 % 1018,4 hPa 0,0 l/m 0 min 0 min 0,0 UV-I 134 W/m 10,3 km/h (2 Bft)
16.03.2014 14:40 13,7 C 12,8 C 77 % 1018,3 hPa 0,0 l/m 0 min 0 min 0,0 UV-I 134 W/m 23,2 km/h (4 Bft)
16.03.2014 14:42 13,7 C 12,8 C 76 % 1018,4 hPa 0,0 l/m 0 min 0 min 0,0 UV-I 114 W/m 12,9 km/h (3 Bft)
16.03.2014 14:44 13,7 C 12,8 C 75 % 1018,4 hPa 0,0 l/m 0 min 0 min 0,0 UV-I 135 W/m 15,4 km/h (3 Bft)
16.03.2014 14:46 13,7 C 12,8 C 75 % 1018,4 hPa 0,0 l/m 0 min 0 min 0,0 UV-I 118 W/m 12,9 km/h (3 Bft)
16.03.2014 14:48 13,7 C 12,8 C 76 % 1018,3 hPa 0,0 l/m 0 min 0 min 0,0 UV-I 123 W/m 33,5 km/h (5 Bft)
16.03.2014 14:50 13,7 C 12,8 C 76 % 1018,4 hPa 0,0 l/m 0 min 0 min 0,0 UV-I 109 W/m 20,6 km/h (4 Bft)
16.03.2014 14:52 13,6 C 12,8 C 76 % 1018,3 hPa 0,0 l/m 0 min 0 min 0,0 UV-I 102 W/m 12,9 km/h (3 Bft)
16.03.2014 14:54 13,6 C 12,8 C 76 % 1018,2 hPa 0,0 l/m 0 min 0 min 0,0 UV-I 102 W/m 7,7 km/h (2 Bft)
16.03.2014 14:56 13,6 C 12,8 C 76 % 1018,2 hPa 0,0 l/m 0 min 0 min 0,0 UV-I 121 W/m 18,0 km/h (3 Bft)
16.03.2014 14:58 13,6 C 12,8 C 76 % 1018,1 hPa 0,0 l/m 0 min 0 min 0,0 UV-I 128 W/m 20,6 km/h (4 Bft)
16.03.2014 15:00 13,6 C 12,8 C 76 % 1018,0 hPa 0,0 l/m 0 min 0 min 0,0 UV-I 146 W/m 15,4 km/h (3 Bft)
16.03.2014 15:02 13,7 C 12,8 C 76 % 1018,0 hPa 0,0 l/m 0 min 0 min 0,0 UV-I 165 W/m 18,0 km/h (3 Bft)
16.03.2014 15:06 13,7 C 13,3 C 76 % 1018,0 hPa 0,0 l/m 0 min 0 min 0,0 UV-I 137 W/m 20,6 km/h (4 Bft)
16.03.2014 15:08 13,7 C 13,3 C 76 % 1018,0 hPa 0,0 l/m 0 min 0 min 0,0 UV-I 151 W/m 10,3 km/h (2 Bft)
16.03.2014 15:10 13,8 C 13,3 C 76 % 1018,0 hPa 0,0 l/m 0 min 0 min 0,0 UV-I 139 W/m 7,7 km/h (2 Bft)
16.03.2014 15:12 13,8 C 13,3 C 76 % 1018,0 hPa 0,0 l/m 0 min 0 min 0,0 UV-I 146 W/m 10,3 km/h (2 Bft)
16.03.2014 15:14 13,8 C 13,3 C 76 % 1018,1 hPa 0,0 l/m 0 min 0 min 0,0 UV-I 120 W/m 15,4 km/h (3 Bft)
16.03.2014 15:16 13,8 C 13,3 C 76 % 1018,1 hPa 0,0 l/m 0 min 0 min 0,0 UV-I 105 W/m 7,7 km/h (2 Bft)
16.03.2014 15:18 13,8 C 12,8 C 76 % 1018,1 hPa 0,0 l/m 0 min 0 min 0,0 UV-I 102 W/m 18,0 km/h (3 Bft)
16.03.2014 15:20 13,8 C 12,8 C 76 % 1018,0 hPa 0,0 l/m 0 min 0 min 0,0 UV-I 104 W/m 12,9 km/h (3 Bft)
16.03.2014 15:22 13,7 C 12,8 C 76 % 1018,1 hPa 0,0 l/m 0 min 0 min 0,0 UV-I 120 W/m 15,4 km/h (3 Bft)
16.03.2014 15:24 13,7 C 12,8 C 76 % 1018,1 hPa 0,0 l/m 0 min 0 min 0,0 UV-I 132 W/m 12,9 km/h (3 Bft)
16.03.2014 15:26 13,7 C 12,8 C 76 % 1018,1 hPa 0,0 l/m 0 min 0 min 0,0 UV-I 130 W/m 15,4 km/h (3 Bft)
16.03.2014 15:28 13,7 C 12,8 C 76 % 1018,0 hPa 0,0 l/m 0 min 0 min 0,0 UV-I 155 W/m 20,6 km/h (4 Bft)
16.03.2014 15:30 13,8 C 13,3 C 76 % 1018,1 hPa 0,0 l/m 0 min 0 min 0,0 UV-I 155 W/m 18,0 km/h (3 Bft)
16.03.2014 15:32 13,8 C 13,3 C 75 % 1018,1 hPa 0,0 l/m 0 min 0 min 0,0 UV-I 135 W/m 12,9 km/h (3 Bft)
16.03.2014 15:34 13,8 C 12,8 C 76 % 1018,3 hPa 0,0 l/m 0 min 0 min 0,0 UV-I 111 W/m 15,4 km/h (3 Bft)
16.03.2014 15:36 13,9 C 12,8 C 76 % 1018,4 hPa 0,0 l/m 0 min 0 min 0,0 UV-I 98 W/m 10,3 km/h (2 Bft)
16.03.2014 15:38 13,9 C 12,8 C 76 % 1018,3 hPa 0,0 l/m 0 min 0 min 0,0 UV-I 95 W/m 7,7 km/h (2 Bft)
16.03.2014 15:40 13,9 C 12,8 C 76 % 1018,4 hPa 0,0 l/m 0 min 0 min 0,0 UV-I 93 W/m 12,9 km/h (3 Bft)
16.03.2014 15:42 13,9 C 12,8 C 76 % 1018,3 hPa 0,0 l/m 0 min 0 min 0,0 UV-I 91 W/m 7,7 km/h (2 Bft)
16.03.2014 15:44 13,9 C 12,8 C 76 % 1018,3 hPa 0,0 l/m 0 min 0 min 0,0 UV-I 88 W/m 23,2 km/h (4 Bft)
16.03.2014 15:46 13,8 C 12,8 C 76 % 1018,4 hPa 0,0 l/m 0 min 0 min 0,0 UV-I 83 W/m 18,0 km/h (3 Bft)
16.03.2014 15:48 13,8 C 12,8 C 76 % 1018,4 hPa 0,0 l/m 0 min 0 min 0,0 UV-I 77 W/m 2,6 km/h (1 Bft)
16.03.2014 15:50 13,8 C 12,8 C 76 % 1018,4 hPa 0,0 l/m 0 min 0 min 0,0 UV-I 72 W/m 12,9 km/h (3 Bft)
16.03.2014 15:52 13,8 C 12,8 C 76 % 1018,5 hPa 0,0 l/m 0 min 0 min 0,0 UV-I 63 W/m 18,0 km/h (3 Bft)
16.03.2014 15:54 13,7 C 12,8 C 76 % 1018,6 hPa 0,0 l/m 0 min 0 min 0,0 UV-I 60 W/m 15,4 km/h (3 Bft)
16.03.2014 15:56 13,7 C 12,8 C 76 % 1018,6 hPa 0,0 l/m 0 min 0 min 0,0 UV-I 62 W/m 12,9 km/h (3 Bft)
16.03.2014 15:58 13,7 C 12,8 C 76 % 1018,6 hPa 0,0 l/m 0 min 0 min 0,0 UV-I 65 W/m 5,1 km/h (1 Bft)
16.03.2014 16:00 13,7 C 12,8 C 76 % 1018,6 hPa 0,0 l/m 0 min 0 min 0,0 UV-I 63 W/m 10,3 km/h (2 Bft)
16.03.2014 16:02 13,6 C 12,8 C 76 % 1018,6 hPa 0,0 l/m 0 min 0 min 0,0 UV-I 63 W/m 12,9 km/h (3 Bft)
16.03.2014 16:06 13,6 C 12,2 C 76 % 1018,7 hPa 0,0 l/m 0 min 0 min 0,0 UV-I 62 W/m 18,0 km/h (3 Bft)
16.03.2014 16:08 13,6 C 12,2 C 76 % 1018,7 hPa 0,0 l/m 0 min 0 min 0,0 UV-I 69 W/m 20,6 km/h (4 Bft)
16.03.2014 16:10 13,5 C 12,2 C 76 % 1018,7 hPa 0,0 l/m 0 min 0 min 0,0 UV-I 65 W/m 18,0 km/h (3 Bft)
16.03.2014 16:12 13,5 C 12,2 C 76 % 1018,7 hPa 0,0 l/m 0 min 0 min 0,0 UV-I 91 W/m 7,7 km/h (2 Bft)
16.03.2014 16:14 13,5 C 12,2 C 76 % 1018,7 hPa 0,0 l/m 0 min 0 min 0,0 UV-I 83 W/m 15,4 km/h (3 Bft)
16.03.2014 16:16 13,5 C 12,2 C 76 % 1018,7 hPa 0,0 l/m 0 min 0 min 0,0 UV-I 98 W/m 12,9 km/h (3 Bft)
16.03.2014 16:18 13,5 C 12,8 C 76 % 1018,7 hPa 0,0 l/m 0 min 0 min 0,0 UV-I 109 W/m 12,9 km/h (3 Bft)
16.03.2014 16:20 13,5 C 12,8 C 76 % 1018,7 hPa 0,0 l/m 0 min 0 min 0,0 UV-I 130 W/m 20,6 km/h (4 Bft)
16.03.2014 16:22 13,6 C 12,8 C 76 % 1018,7 hPa 0,0 l/m 0 min 0 min 0,0 UV-I 144 W/m 12,9 km/h (3 Bft)
16.03.2014 16:24 13,6 C 12,8 C 75 % 1018,6 hPa 0,0 l/m 0 min 0 min 0,0 UV-I 148 W/m 18,0 km/h (3 Bft)
16.03.2014 16:26 13,7 C 12,8 C 75 % 1018,6 hPa 0,0 l/m 0 min 0 min 0,0 UV-I 155 W/m 10,3 km/h (2 Bft)
16.03.2014 16:28 13,8 C 12,8 C 75 % 1018,6 hPa 0,0 l/m 0 min 0 min 0,0 UV-I 146 W/m 15,4 km/h (3 Bft)
16.03.2014 16:30 13,8 C 12,8 C 74 % 1018,5 hPa 0,0 l/m 2 min 0 min 0,0 UV-I 197 W/m 12,9 km/h (3 Bft)
16.03.2014 16:32 13,8 C 12,8 C 74 % 1018,5 hPa 0,0 l/m 0 min 0 min 0,0 UV-I 137 W/m 23,2 km/h (4 Bft)
16.03.2014 16:34 13,9 C 12,8 C 74 % 1018,4 hPa 0,0 l/m 2 min 0 min 0,0 UV-I 272 W/m 10,3 km/h (2 Bft)
16.03.2014 16:36 14,0 C 12,8 C 73 % 1018,5 hPa 0,0 l/m 2 min 0 min 0,0 UV-I 262 W/m 12,9 km/h (3 Bft)
16.03.2014 16:38 14,0 C 12,8 C 73 % 1018,4 hPa 0,0 l/m 2 min 0 min 0,0 UV-I 276 W/m 15,4 km/h (3 Bft)
16.03.2014 16:40 14,1 C 12,8 C 74 % 1018,4 hPa 0,0 l/m 2 min 0 min 0,0 UV-I 262 W/m 25,7 km/h (4 Bft)
16.03.2014 16:42 14,1 C 12,8 C 73 % 1018,4 hPa 0,0 l/m 2 min 0 min 0,0 UV-I 239 W/m 20,6 km/h (4 Bft)
16.03.2014 16:44 14,1 C 12,8 C 73 % 1018,4 hPa 0,0 l/m 2 min 0 min 0,0 UV-I 227 W/m 15,4 km/h (3 Bft)
16.03.2014 16:46 14,1 C 12,8 C 73 % 1018,4 hPa 0,0 l/m 2 min 0 min 0,0 UV-I 206 W/m 10,3 km/h (2 Bft)
16.03.2014 16:48 14,1 C 12,8 C 73 % 1018,4 hPa 0,0 l/m 2 min 0 min 0,0 UV-I 229 W/m 18,0 km/h (3 Bft)
16.03.2014 16:50 14,2 C 12,8 C 73 % 1018,3 hPa 0,0 l/m 2 min 0 min 0,0 UV-I 216 W/m 18,0 km/h (3 Bft)
16.03.2014 16:52 14,1 C 12,8 C 73 % 1018,3 hPa 0,0 l/m 2 min 0 min 0,0 UV-I 220 W/m 18,0 km/h (3 Bft)
16.03.2014 16:54 14,1 C 12,8 C 73 % 1018,3 hPa 0,0 l/m 2 min 0 min 0,0 UV-I 218 W/m 18,0 km/h (3 Bft)
16.03.2014 16:56 14,0 C 12,8 C 73 % 1018,3 hPa 0,0 l/m 2 min 0 min 0,0 UV-I 204 W/m 20,6 km/h (4 Bft)
16.03.2014 16:58 14,0 C 12,8 C 73 % 1018,3 hPa 0,0 l/m 2 min 0 min 0,0 UV-I 193 W/m 10,3 km/h (2 Bft)
16.03.2014 17:00 14,0 C 12,8 C 73 % 1018,3 hPa 0,0 l/m 2 min 0 min 0,0 UV-I 190 W/m 15,4 km/h (3 Bft)
16.03.2014 17:02 14,0 C 12,8 C 73 % 1018,3 hPa 0,0 l/m 2 min 0 min 0,0 UV-I 181 W/m 15,4 km/h (3 Bft)
16.03.2014 17:06 13,8 C 12,2 C 73 % 1018,3 hPa 0,0 l/m 2 min 0 min 0,0 UV-I 176 W/m 20,6 km/h (4 Bft)
16.03.2014 17:08 13,8 C 12,2 C 73 % 1018,4 hPa 0,0 l/m 2 min 0 min 0,0 UV-I 176 W/m 28,3 km/h (4 Bft)
16.03.2014 17:10 13,8 C 12,2 C 73 % 1018,5 hPa 0,0 l/m 2 min 0 min 0,0 UV-I 160 W/m 18,0 km/h (3 Bft)
16.03.2014 17:12 13,7 C 12,2 C 73 % 1018,5 hPa 0,0 l/m 2 min 0 min 0,0 UV-I 155 W/m 20,6 km/h (4 Bft)
16.03.2014 17:14 13,7 C 12,2 C 73 % 1018,3 hPa 0,0 l/m 2 min 0 min 0,0 UV-I 158 W/m 18,0 km/h (3 Bft)
16.03.2014 17:16 13,6 C 12,2 C 74 % 1018,4 hPa 0,0 l/m 2 min 0 min 0,0 UV-I 144 W/m 12,9 km/h (3 Bft)
16.03.2014 17:18 13,6 C 12,2 C 74 % 1018,4 hPa 0,0 l/m 2 min 0 min 0,0 UV-I 141 W/m 18,0 km/h (3 Bft)
16.03.2014 17:20 13,5 C 12,2 C 74 % 1018,3 hPa 0,0 l/m 2 min 0 min 0,0 UV-I 135 W/m 18,0 km/h (3 Bft)
16.03.2014 17:22 13,5 C 12,2 C 74 % 1018,4 hPa 0,0 l/m 2 min 0 min 0,0 UV-I 135 W/m 12,9 km/h (3 Bft)
16.03.2014 17:24 13,4 C 11,7 C 74 % 1018,5 hPa 0,0 l/m 2 min 0 min 0,0 UV-I 128 W/m 7,7 km/h (2 Bft)
16.03.2014 17:26 13,5 C 11,7 C 74 % 1018,5 hPa 0,0 l/m 2 min 0 min 0,0 UV-I 123 W/m 0,0 km/h (0 Bft)
16.03.2014 17:28 13,5 C 11,7 C 74 % 1018,5 hPa 0,0 l/m 2 min 0 min 0,0 UV-I 116 W/m 23,2 km/h (4 Bft)
16.03.2014 17:30 13,4 C 11,7 C 74 % 1018,5 hPa 0,0 l/m 2 min 0 min 0,0 UV-I 113 W/m 12,9 km/h (3 Bft)
16.03.2014 17:32 13,4 C 11,7 C 74 % 1018,5 hPa 0,0 l/m 2 min 0 min 0,0 UV-I 105 W/m 5,1 km/h (1 Bft)
16.03.2014 17:34 13,4 C 11,7 C 74 % 1018,5 hPa 0,0 l/m 2 min 0 min 0,0 UV-I 100 W/m 18,0 km/h (3 Bft)
16.03.2014 17:36 13,4 C 11,7 C 74 % 1018,5 hPa 0,0 l/m 0 min 0 min 0,0 UV-I 84 W/m 0,0 km/h (0 Bft)
16.03.2014 17:38 13,4 C 11,7 C 74 % 1018,6 hPa 0,0 l/m 2 min 0 min 0,0 UV-I 93 W/m 15,4 km/h (3 Bft)
16.03.2014 17:40 13,3 C 11,7 C 74 % 1018,6 hPa 0,0 l/m 2 min 0 min 0,0 UV-I 88 W/m 15,4 km/h (3 Bft)
16.03.2014 17:42 13,3 C 11,7 C 73 % 1018,6 hPa 0,0 l/m 2 min 0 min 0,0 UV-I 81 W/m 12,9 km/h (3 Bft)
16.03.2014 17:44 13,3 C 11,7 C 74 % 1018,6 hPa 0,0 l/m 2 min 0 min 0,0 UV-I 84 W/m 25,7 km/h (4 Bft)
16.03.2014 17:46 13,2 C 11,7 C 74 % 1018,6 hPa 0,0 l/m 2 min 0 min 0,0 UV-I 74 W/m 15,4 km/h (3 Bft)
16.03.2014 17:48 13,2 C 11,7 C 74 % 1018,6 hPa 0,0 l/m 0 min 0 min 0,0 UV-I 65 W/m 2,6 km/h (1 Bft)
16.03.2014 17:50 13,1 C 11,7 C 74 % 1018,7 hPa 0,0 l/m 0 min 0 min 0,0 UV-I 62 W/m 2,6 km/h (1 Bft)
16.03.2014 17:52 13,1 C 11,7 C 74 % 1018,6 hPa 0,0 l/m 0 min 0 min 0,0 UV-I 62 W/m 2,6 km/h (1 Bft)
16.03.2014 17:54 13,1 C 11,1 C 74 % 1018,6 hPa 0,0 l/m 0 min 0 min 0,0 UV-I 56 W/m 10,3 km/h (2 Bft)
16.03.2014 17:56 13,0 C 11,1 C 75 % 1018,7 hPa 0,0 l/m 0 min 0 min 0,0 UV-I 51 W/m 0,0 km/h (0 Bft)
16.03.2014 17:58 12,9 C 11,1 C 75 % 1018,7 hPa 0,0 l/m 0 min 0 min 0,0 UV-I 49 W/m 2,6 km/h (1 Bft)
16.03.2014 18:00 12,9 C 11,1 C 75 % 1018,7 hPa 0,0 l/m 0 min 0 min 0,0 UV-I 49 W/m 18,0 km/h (3 Bft)
16.03.2014 18:02 12,8 C 11,1 C 75 % 1018,7 hPa 0,0 l/m 0 min 0 min 0,0 UV-I 42 W/m 18,0 km/h (3 Bft)
16.03.2014 18:06 12,8 C 11,1 C 75 % 1018,7 hPa 0,0 l/m 0 min 0 min 0,0 UV-I 30 W/m 15,4 km/h (3 Bft)
16.03.2014 18:08 12,7 C 11,1 C 75 % 1018,7 hPa 0,0 l/m 0 min 0 min 0,0 UV-I 28 W/m 20,6 km/h (4 Bft)
16.03.2014 18:10 12,7 C 11,1 C 75 % 1018,8 hPa 0,0 l/m 0 min 0 min 0,0 UV-I 26 W/m 15,4 km/h (3 Bft)
16.03.2014 18:12 12,7 C 11,1 C 74 % 1018,9 hPa 0,0 l/m 0 min 0 min 0,0 UV-I 25 W/m 18,0 km/h (3 Bft)
16.03.2014 18:14 12,6 C 11,1 C 74 % 1018,9 hPa 0,0 l/m 0 min 0 min 0,0 UV-I 23 W/m 20,6 km/h (4 Bft)
16.03.2014 18:16 12,6 C 10,6 C 74 % 1018,9 hPa 0,0 l/m 0 min 0 min 0,0 UV-I 21 W/m 18,0 km/h (3 Bft)
16.03.2014 18:18 12,6 C 10,6 C 73 % 1019,0 hPa 0,0 l/m 0 min 0 min 0,0 UV-I 19 W/m 23,2 km/h (4 Bft)
16.03.2014 18:20 12,5 C 10,6 C 73 % 1019,0 hPa 0,0 l/m 0 min 0 min 0,0 UV-I 16 W/m 15,4 km/h (3 Bft)
16.03.2014 18:22 12,5 C 10,6 C 73 % 1019,0 hPa 0,0 l/m 0 min 0 min 0,0 UV-I 12 W/m 18,0 km/h (3 Bft)
16.03.2014 18:24 12,4 C 10,6 C 73 % 1019,0 hPa 0,0 l/m 0 min 0 min 0,0 UV-I 12 W/m 12,9 km/h (3 Bft)
16.03.2014 18:26 12,4 C 10,6 C 73 % 1019,0 hPa 0,0 l/m 0 min 0 min 0,0 UV-I 12 W/m 28,3 km/h (4 Bft)
16.03.2014 18:28 12,3 C 10,6 C 73 % 1019,0 hPa 0,0 l/m 0 min 0 min 0,0 UV-I 11 W/m 5,1 km/h (1 Bft)
16.03.2014 18:30 12,3 C 10,6 C 73 % 1019,0 hPa 0,0 l/m 0 min 0 min 0,0 UV-I 11 W/m 7,7 km/h (2 Bft)
16.03.2014 18:32 12,2 C 10,6 C 73 % 1018,9 hPa 0,0 l/m 0 min 0 min 0,0 UV-I 9 W/m 15,4 km/h (3 Bft)
16.03.2014 18:34 12,2 C 10,6 C 73 % 1019,0 hPa 0,0 l/m 0 min 0 min 0,0 UV-I 7 W/m 12,9 km/h (3 Bft)
16.03.2014 18:36 12,1 C 10,0 C 73 % 1018,9 hPa 0,0 l/m 0 min 0 min 0,0 UV-I 7 W/m 10,3 km/h (2 Bft)
16.03.2014 18:38 12,0 C 10,0 C 73 % 1019,0 hPa 0,0 l/m 0 min 0 min 0,0 UV-I 5 W/m 7,7 km/h (2 Bft)
16.03.2014 18:40 11,9 C 10,0 C 74 % 1019,0 hPa 0,0 l/m 0 min 0 min 0,0 UV-I 5 W/m 2,6 km/h (1 Bft)
16.03.2014 18:42 11,9 C 10,0 C 74 % 1019,0 hPa 0,0 l/m 0 min 0 min 0,0 UV-I 5 W/m 2,6 km/h (1 Bft)
16.03.2014 18:44 11,8 C 10,0 C 74 % 1019,0 hPa 0,0 l/m 0 min 0 min 0,0 UV-I 0 W/m 7,7 km/h (2 Bft)
16.03.2014 18:46 11,8 C 10,0 C 75 % 1019,0 hPa 0,0 l/m 0 min 0 min 0,0 UV-I 0 W/m 0,0 km/h (0 Bft)
16.03.2014 18:48 11,7 C 10,0 C 75 % 1019,0 hPa 0,0 l/m 0 min 0 min 0,0 UV-I 0 W/m 7,7 km/h (2 Bft)
16.03.2014 18:50 11,7 C 9,4 C 75 % 1019,1 hPa 0,0 l/m 0 min 0 min 0,0 UV-I 0 W/m 10,3 km/h (2 Bft)
16.03.2014 18:52 11,6 C 9,4 C 76 % 1019,1 hPa 0,0 l/m 0 min 0 min 0,0 UV-I 0 W/m 7,7 km/h (2 Bft)
16.03.2014 18:54 11,5 C 9,4 C 76 % 1019,2 hPa 0,0 l/m 0 min 0 min 0,0 UV-I 0 W/m 10,3 km/h (2 Bft)
16.03.2014 18:56 11,5 C 9,4 C 76 % 1019,2 hPa 0,0 l/m 0 min 0 min 0,0 UV-I 0 W/m 7,7 km/h (2 Bft)
16.03.2014 18:58 11,4 C 9,4 C 76 % 1019,2 hPa 0,0 l/m 0 min 0 min 0,0 UV-I 0 W/m 2,6 km/h (1 Bft)
16.03.2014 19:00 11,4 C 9,4 C 76 % 1019,2 hPa 0,0 l/m 0 min 0 min 0,0 UV-I 0 W/m 12,9 km/h (3 Bft)
16.03.2014 19:02 11,3 C 9,4 C 76 % 1019,2 hPa 0,0 l/m 0 min 0 min 0,0 UV-I 0 W/m 7,7 km/h (2 Bft)
16.03.2014 19:06 11,3 C 9,4 C 77 % 1019,3 hPa 0,0 l/m 0 min 0 min 0,0 UV-I 0 W/m 10,3 km/h (2 Bft)
16.03.2014 19:08 11,2 C 9,4 C 77 % 1019,3 hPa 0,0 l/m 0 min 0 min 0,0 UV-I 0 W/m 5,1 km/h (1 Bft)
16.03.2014 19:10 11,2 C 9,4 C 77 % 1019,3 hPa 0,0 l/m 0 min 0 min 0,0 UV-I 0 W/m 0,0 km/h (0 Bft)
16.03.2014 19:12 11,1 C 9,4 C 77 % 1019,3 hPa 0,0 l/m 0 min 0 min 0,0 UV-I 0 W/m 0,0 km/h (0 Bft)
16.03.2014 19:14 11,0 C 9,4 C 78 % 1019,3 hPa 0,0 l/m 0 min 0 min 0,0 UV-I 0 W/m 10,3 km/h (2 Bft)
16.03.2014 19:16 10,9 C 8,9 C 78 % 1019,4 hPa 0,0 l/m 0 min 0 min 0,0 UV-I 0 W/m 7,7 km/h (2 Bft)
16.03.2014 19:18 10,9 C 8,9 C 78 % 1019,4 hPa 0,0 l/m 0 min 0 min 0,0 UV-I 0 W/m 0,0 km/h (0 Bft)
16.03.2014 19:20 10,9 C 8,9 C 78 % 1019,4 hPa 0,0 l/m 0 min 0 min 0,0 UV-I 0 W/m 5,1 km/h (1 Bft)
16.03.2014 19:22 10,8 C 8,9 C 78 % 1019,5 hPa 0,0 l/m 0 min 0 min 0,0 UV-I 0 W/m 2,6 km/h (1 Bft)
16.03.2014 19:24 10,8 C 8,9 C 77 % 1019,5 hPa 0,0 l/m 0 min 0 min 0,0 UV-I 0 W/m 10,3 km/h (2 Bft)
16.03.2014 19:26 10,8 C 8,9 C 77 % 1019,6 hPa 0,0 l/m 0 min 0 min 0,0 UV-I 0 W/m 10,3 km/h (2 Bft)
16.03.2014 19:28 10,8 C 8,9 C 77 % 1019,6 hPa 0,0 l/m 0 min 0 min 0,0 UV-I 0 W/m 0,0 km/h (0 Bft)
16.03.2014 19:30 10,7 C 8,9 C 77 % 1019,6 hPa 0,0 l/m 0 min 0 min 0,0 UV-I 0 W/m 7,7 km/h (2 Bft)
16.03.2014 19:32 10,7 C 8,9 C 77 % 1019,6 hPa 0,0 l/m 0 min 0 min 0,0 UV-I 0 W/m 10,3 km/h (2 Bft)
16.03.2014 19:34 10,7 C 8,9 C 77 % 1019,7 hPa 0,0 l/m 0 min 0 min 0,0 UV-I 0 W/m 10,3 km/h (2 Bft)
16.03.2014 19:36 10,7 C 8,9 C 77 % 1019,7 hPa 0,0 l/m 0 min 0 min 0,0 UV-I 0 W/m 10,3 km/h (2 Bft)
16.03.2014 19:38 10,7 C 8,9 C 76 % 1019,6 hPa 0,0 l/m 0 min 0 min 0,0 UV-I 0 W/m 7,7 km/h (2 Bft)
16.03.2014 19:40 10,7 C 8,9 C 76 % 1019,7 hPa 0,0 l/m 0 min 0 min 0,0 UV-I 0 W/m 12,9 km/h (3 Bft)
16.03.2014 19:42 10,7 C 8,9 C 76 % 1019,7 hPa 0,0 l/m 0 min 0 min 0,0 UV-I 0 W/m 7,7 km/h (2 Bft)
16.03.2014 19:44 10,6 C 8,9 C 76 % 1019,7 hPa 0,0 l/m 0 min 0 min 0,0 UV-I 0 W/m 7,7 km/h (2 Bft)
16.03.2014 19:46 10,6 C 8,9 C 76 % 1019,8 hPa 0,0 l/m 0 min 0 min 0,0 UV-I 0 W/m 12,9 km/h (3 Bft)
16.03.2014 19:48 10,6 C 8,9 C 76 % 1019,8 hPa 0,0 l/m 0 min 0 min 0,0 UV-I 0 W/m 10,3 km/h (2 Bft)
16.03.2014 19:50 10,6 C 8,9 C 76 % 1019,8 hPa 0,0 l/m 0 min 0 min 0,0 UV-I 0 W/m 5,1 km/h (1 Bft)
16.03.2014 19:52 10,5 C 8,9 C 76 % 1019,8 hPa 0,0 l/m 0 min 0 min 0,0 UV-I 0 W/m 2,6 km/h (1 Bft)
16.03.2014 19:54 10,4 C 8,9 C 76 % 1019,8 hPa 0,0 l/m 0 min 0 min 0,0 UV-I 0 W/m 7,7 km/h (2 Bft)
16.03.2014 19:56 10,4 C 8,9 C 76 % 1019,8 hPa 0,0 l/m 0 min 0 min 0,0 UV-I 0 W/m 0,0 km/h (0 Bft)
16.03.2014 19:58 10,4 C 8,9 C 77 % 1019,9 hPa 0,0 l/m 0 min 0 min 0,0 UV-I 0 W/m 5,1 km/h (1 Bft)
16.03.2014 20:00 10,3 C 8,9 C 77 % 1019,8 hPa 0,0 l/m 0 min 0 min 0,0 UV-I 0 W/m 7,7 km/h (2 Bft)
16.03.2014 20:02 10,3 C 8,3 C 77 % 1019,9 hPa 0,0 l/m 0 min 0 min 0,0 UV-I 0 W/m 0,0 km/h (0 Bft)
16.03.2014 20:06 10,2 C 8,3 C 77 % 1020,1 hPa 0,0 l/m 0 min 0 min 0,0 UV-I 0 W/m 0,0 km/h (0 Bft)
16.03.2014 20:08 10,2 C 8,3 C 77 % 1020,0 hPa 0,0 l/m 0 min 0 min 0,0 UV-I 0 W/m 0,0 km/h (0 Bft)
16.03.2014 20:10 10,1 C 8,3 C 78 % 1020,1 hPa 0,0 l/m 0 min 0 min 0,0 UV-I 0 W/m 5,1 km/h (1 Bft)
16.03.2014 20:12 10,1 C 8,3 C 78 % 1020,1 hPa 0,0 l/m 0 min 0 min 0,0 UV-I 0 W/m 2,6 km/h (1 Bft)
16.03.2014 20:14 10,1 C 8,3 C 78 % 1020,0 hPa 0,0 l/m 0 min 0 min 0,0 UV-I 0 W/m 0,0 km/h (0 Bft)
16.03.2014 20:16 10,0 C 8,3 C 78 % 1020,0 hPa 0,0 l/m 0 min 0 min 0,0 UV-I 0 W/m 0,0 km/h (0 Bft)
16.03.2014 20:18 10,0 C 8,3 C 78 % 1020,1 hPa 0,0 l/m 0 min 0 min 0,0 UV-I 0 W/m 0,0 km/h (0 Bft)
16.03.2014 20:20 9,9 C 8,3 C 78 % 1020,1 hPa 0,0 l/m 0 min 0 min 0,0 UV-I 0 W/m 0,0 km/h (0 Bft)
16.03.2014 20:22 9,9 C 8,3 C 78 % 1020,1 hPa 0,0 l/m 0 min 0 min 0,0 UV-I 0 W/m 2,6 km/h (1 Bft)
16.03.2014 20:24 9,8 C 8,3 C 79 % 1020,1 hPa 0,0 l/m 0 min 0 min 0,0 UV-I 0 W/m 0,0 km/h (0 Bft)
16.03.2014 20:26 9,8 C 8,3 C 79 % 1020,3 hPa 0,0 l/m 0 min 0 min 0,0 UV-I 0 W/m 0,0 km/h (0 Bft)
16.03.2014 20:28 9,8 C 7,8 C 79 % 1020,2 hPa 0,0 l/m 0 min 0 min 0,0 UV-I 0 W/m 0,0 km/h (0 Bft)
16.03.2014 20:30 9,8 C 7,8 C 79 % 1020,2 hPa 0,0 l/m 0 min 0 min 0,0 UV-I 0 W/m 7,7 km/h (2 Bft)
16.03.2014 20:32 9,7 C 7,8 C 79 % 1020,2 hPa 0,0 l/m 0 min 0 min 0,0 UV-I 0 W/m 2,6 km/h (1 Bft)
16.03.2014 20:34 9,7 C 7,8 C 79 % 1020,2 hPa 0,0 l/m 0 min 0 min 0,0 UV-I 0 W/m 0,0 km/h (0 Bft)
16.03.2014 20:36 9,7 C 7,8 C 79 % 1020,3 hPa 0,0 l/m 0 min 0 min 0,0 UV-I 0 W/m 0,0 km/h (0 Bft)
16.03.2014 20:38 9,7 C 7,8 C 79 % 1020,3 hPa 0,0 l/m 0 min 0 min 0,0 UV-I 0 W/m 0,0 km/h (0 Bft)
16.03.2014 20:40 9,6 C 7,8 C 79 % 1020,3 hPa 0,0 l/m 0 min 0 min 0,0 UV-I 0 W/m 0,0 km/h (0 Bft)
16.03.2014 20:42 9,6 C 7,8 C 80 % 1020,3 hPa 0,0 l/m 0 min 0 min 0,0 UV-I 0 W/m 0,0 km/h (0 Bft)
16.03.2014 20:44 9,6 C 7,8 C 80 % 1020,2 hPa 0,0 l/m 0 min 0 min 0,0 UV-I 0 W/m 7,7 km/h (2 Bft)
16.03.2014 20:46 9,6 C 7,8 C 80 % 1020,1 hPa 0,0 l/m 0 min 0 min 0,0 UV-I 0 W/m 0,0 km/h (0 Bft)
16.03.2014 20:48 9,5 C 7,8 C 80 % 1020,1 hPa 0,0 l/m 0 min 0 min 0,0 UV-I 0 W/m 0,0 km/h (0 Bft)
16.03.2014 20:50 9,4 C 7,8 C 80 % 1020,2 hPa 0,0 l/m 0 min 0 min 0,0 UV-I 0 W/m 5,1 km/h (1 Bft)
16.03.2014 20:52 9,4 C 7,8 C 80 % 1020,1 hPa 0,0 l/m 0 min 0 min 0,0 UV-I 0 W/m 7,7 km/h (2 Bft)
16.03.2014 20:54 9,4 C 7,8 C 80 % 1020,1 hPa 0,0 l/m 0 min 0 min 0,0 UV-I 0 W/m 0,0 km/h (0 Bft)
16.03.2014 20:56 9,4 C 7,8 C 80 % 1020,2 hPa 0,0 l/m 0 min 0 min 0,0 UV-I 0 W/m 0,0 km/h (0 Bft)
16.03.2014 20:58 9,3 C 7,8 C 80 % 1020,2 hPa 0,0 l/m 0 min 0 min 0,0 UV-I 0 W/m 0,0 km/h (0 Bft)
16.03.2014 21:00 9,3 C 7,8 C 81 % 1020,2 hPa 0,0 l/m 0 min 0 min 0,0 UV-I 0 W/m 0,0 km/h (0 Bft)
16.03.2014 21:02 9,3 C 7,8 C 81 % 1020,2 hPa 0,0 l/m 0 min 0 min 0,0 UV-I 0 W/m 2,6 km/h (1 Bft)
16.03.2014 21:06 9,2 C 7,8 C 81 % 1020,2 hPa 0,0 l/m 0 min 0 min 0,0 UV-I 0 W/m 10,3 km/h (2 Bft)
16.03.2014 21:08 9,2 C 7,2 C 81 % 1020,1 hPa 0,0 l/m 0 min 0 min 0,0 UV-I 0 W/m 0,0 km/h (0 Bft)
16.03.2014 21:10 9,1 C 7,2 C 81 % 1020,1 hPa 0,0 l/m 0 min 0 min 0,0 UV-I 0 W/m 0,0 km/h (0 Bft)
16.03.2014 21:12 9,0 C 7,2 C 81 % 1020,1 hPa 0,0 l/m 0 min 0 min 0,0 UV-I 0 W/m 0,0 km/h (0 Bft)
16.03.2014 21:14 8,9 C 7,2 C 82 % 1020,2 hPa 0,0 l/m 0 min 0 min 0,0 UV-I 0 W/m 0,0 km/h (0 Bft)
16.03.2014 21:16 8,9 C 7,2 C 82 % 1020,2 hPa 0,0 l/m 0 min 0 min 0,0 UV-I 0 W/m 0,0 km/h (0 Bft)
16.03.2014 21:18 8,9 C 7,2 C 82 % 1020,2 hPa 0,0 l/m 0 min 0 min 0,0 UV-I 0 W/m 0,0 km/h (0 Bft)
16.03.2014 21:20 8,8 C 7,2 C 82 % 1020,2 hPa 0,0 l/m 0 min 0 min 0,0 UV-I 0 W/m 0,0 km/h (0 Bft)
16.03.2014 21:22 8,8 C 7,2 C 82 % 1020,2 hPa 0,0 l/m 0 min 0 min 0,0 UV-I 0 W/m 0,0 km/h (0 Bft)
16.03.2014 21:24 8,7 C 6,7 C 82 % 1020,2 hPa 0,0 l/m 0 min 0 min 0,0 UV-I 0 W/m 0,0 km/h (0 Bft)
16.03.2014 21:26 8,7 C 6,7 C 82 % 1020,1 hPa 0,0 l/m 0 min 0 min 0,0 UV-I 0 W/m 0,0 km/h (0 Bft)
16.03.2014 21:28 8,7 C 6,7 C 82 % 1020,2 hPa 0,0 l/m 0 min 0 min 0,0 UV-I 0 W/m 0,0 km/h (0 Bft)
16.03.2014 21:30 8,7 C 6,7 C 82 % 1020,2 hPa 0,0 l/m 0 min 0 min 0,0 UV-I 0 W/m 0,0 km/h (0 Bft)
16.03.2014 21:32 8,6 C 6,7 C 82 % 1020,2 hPa 0,0 l/m 0 min 0 min 0,0 UV-I 0 W/m 0,0 km/h (0 Bft)
16.03.2014 21:34 8,6 C 6,7 C 82 % 1020,2 hPa 0,0 l/m 0 min 0 min 0,0 UV-I 0 W/m 0,0 km/h (0 Bft)
16.03.2014 21:36 8,6 C 6,7 C 82 % 1020,2 hPa 0,0 l/m 0 min 0 min 0,0 UV-I 0 W/m 0,0 km/h (0 Bft)
16.03.2014 21:38 8,5 C 6,7 C 82 % 1020,1 hPa 0,0 l/m 0 min 0 min 0,0 UV-I 0 W/m 0,0 km/h (0 Bft)
16.03.2014 21:40 8,5 C 6,7 C 82 % 1020,2 hPa 0,0 l/m 0 min 0 min 0,0 UV-I 0 W/m 0,0 km/h (0 Bft)
16.03.2014 21:42 8,4 C 6,7 C 83 % 1020,1 hPa 0,0 l/m 0 min 0 min 0,0 UV-I 0 W/m 0,0 km/h (0 Bft)
16.03.2014 21:44 8,4 C 6,7 C 83 % 1020,2 hPa 0,0 l/m 0 min 0 min 0,0 UV-I 0 W/m 0,0 km/h (0 Bft)
16.03.2014 21:46 8,3 C 6,7 C 83 % 1020,3 hPa 0,0 l/m 0 min 0 min 0,0 UV-I 0 W/m 0,0 km/h (0 Bft)
16.03.2014 21:48 8,3 C 6,7 C 83 % 1020,1 hPa 0,0 l/m 0 min 0 min 0,0 UV-I 0 W/m 0,0 km/h (0 Bft)
16.03.2014 21:50 8,3 C 6,7 C 83 % 1020,2 hPa 0,0 l/m 0 min 0 min 0,0 UV-I 0 W/m 0,0 km/h (0 Bft)
16.03.2014 21:52 8,3 C 6,7 C 83 % 1020,1 hPa 0,0 l/m 0 min 0 min 0,0 UV-I 0 W/m 0,0 km/h (0 Bft)
16.03.2014 21:54 8,3 C 6,7 C 83 % 1020,1 hPa 0,0 l/m 0 min 0 min 0,0 UV-I 0 W/m 0,0 km/h (0 Bft)
16.03.2014 21:56 8,4 C 6,7 C 83 % 1020,2 hPa 0,0 l/m 0 min 0 min 0,0 UV-I 0 W/m 0,0 km/h (0 Bft)
16.03.2014 21:58 8,4 C 6,7 C 83 % 1020,0 hPa 0,0 l/m 0 min 0 min 0,0 UV-I 0 W/m 0,0 km/h (0 Bft)
16.03.2014 22:00 8,4 C 6,7 C 83 % 1020,1 hPa 0,0 l/m 0 min 0 min 0,0 UV-I 0 W/m 0,0 km/h (0 Bft)
16.03.2014 22:02 8,4 C 6,7 C 83 % 1020,1 hPa 0,0 l/m 0 min 0 min 0,0 UV-I 0 W/m 0,0 km/h (0 Bft)
16.03.2014 22:06 8,4 C 6,7 C 83 % 1020,1 hPa 0,0 l/m 0 min 0 min 0,0 UV-I 0 W/m 5,1 km/h (1 Bft)
16.03.2014 22:08 8,4 C 6,7 C 84 % 1020,1 hPa 0,0 l/m 0 min 0 min 0,0 UV-I 0 W/m 0,0 km/h (0 Bft)
16.03.2014 22:10 8,4 C 6,7 C 84 % 1020,1 hPa 0,0 l/m 0 min 0 min 0,0 UV-I 0 W/m 5,1 km/h (1 Bft)
16.03.2014 22:12 8,4 C 6,7 C 84 % 1020,0 hPa 0,0 l/m 0 min 0 min 0,0 UV-I 0 W/m 2,6 km/h (1 Bft)
16.03.2014 22:14 8,4 C 6,7 C 84 % 1020,0 hPa 0,0 l/m 0 min 0 min 0,0 UV-I 0 W/m 0,0 km/h (0 Bft)
16.03.2014 22:16 8,4 C 6,7 C 84 % 1020,0 hPa 0,0 l/m 0 min 0 min 0,0 UV-I 0 W/m 5,1 km/h (1 Bft)
16.03.2014 22:18 8,4 C 6,7 C 84 % 1020,1 hPa 0,0 l/m 0 min 0 min 0,0 UV-I 0 W/m 0,0 km/h (0 Bft)
16.03.2014 22:20 8,4 C 6,7 C 84 % 1020,0 hPa 0,0 l/m 0 min 0 min 0,0 UV-I 0 W/m 0,0 km/h (0 Bft)
16.03.2014 22:22 8,4 C 6,7 C 84 % 1020,0 hPa 0,0 l/m 0 min 0 min 0,0 UV-I 0 W/m 0,0 km/h (0 Bft)
16.03.2014 22:24 8,4 C 6,7 C 84 % 1020,1 hPa 0,0 l/m 0 min 0 min 0,0 UV-I 0 W/m 0,0 km/h (0 Bft)
16.03.2014 22:26 8,4 C 6,7 C 85 % 1020,1 hPa 0,0 l/m 0 min 0 min 0,0 UV-I 0 W/m 0,0 km/h (0 Bft)
16.03.2014 22:28 8,3 C 6,7 C 85 % 1020,1 hPa 0,0 l/m 0 min 0 min 0,0 UV-I 0 W/m 0,0 km/h (0 Bft)
16.03.2014 22:30 8,3 C 6,7 C 85 % 1020,1 hPa 0,0 l/m 0 min 0 min 0,0 UV-I 0 W/m 0,0 km/h (0 Bft)
16.03.2014 22:32 8,2 C 6,1 C 85 % 1020,1 hPa 0,0 l/m 0 min 0 min 0,0 UV-I 0 W/m 0,0 km/h (0 Bft)
16.03.2014 22:34 8,1 C 6,1 C 85 % 1020,0 hPa 0,0 l/m 0 min 0 min 0,0 UV-I 0 W/m 0,0 km/h (0 Bft)
16.03.2014 22:36 8,0 C 6,1 C 85 % 1020,0 hPa 0,0 l/m 0 min 0 min 0,0 UV-I 0 W/m 0,0 km/h (0 Bft)
16.03.2014 22:38 7,9 C 6,1 C 85 % 1020,1 hPa 0,0 l/m 0 min 0 min 0,0 UV-I 0 W/m 0,0 km/h (0 Bft)
16.03.2014 22:40 7,9 C 6,1 C 85 % 1020,0 hPa 0,0 l/m 0 min 0 min 0,0 UV-I 0 W/m 0,0 km/h (0 Bft)
16.03.2014 22:42 7,8 C 6,1 C 86 % 1020,0 hPa 0,0 l/m 0 min 0 min 0,0 UV-I 0 W/m 0,0 km/h (0 Bft)
16.03.2014 22:44 7,9 C 6,1 C 86 % 1020,0 hPa 0,0 l/m 0 min 0 min 0,0 UV-I 0 W/m 0,0 km/h (0 Bft)
16.03.2014 22:46 7,8 C 6,1 C 86 % 1020,0 hPa 0,0 l/m 0 min 0 min 0,0 UV-I 0 W/m 0,0 km/h (0 Bft)
16.03.2014 22:48 7,8 C 6,1 C 86 % 1020,0 hPa 0,0 l/m 0 min 0 min 0,0 UV-I 0 W/m 0,0 km/h (0 Bft)
16.03.2014 22:50 7,8 C 6,1 C 86 % 1020,1 hPa 0,0 l/m 0 min 0 min 0,0 UV-I 0 W/m 0,0 km/h (0 Bft)
16.03.2014 22:52 7,8 C 6,1 C 86 % 1020,0 hPa 0,0 l/m 0 min 0 min 0,0 UV-I 0 W/m 0,0 km/h (0 Bft)
16.03.2014 22:54 7,9 C 6,1 C 86 % 1020,0 hPa 0,0 l/m 0 min 0 min 0,0 UV-I 0 W/m 0,0 km/h (0 Bft)
16.03.2014 22:56 7,9 C 6,1 C 86 % 1020,1 hPa 0,0 l/m 0 min 0 min 0,0 UV-I 0 W/m 2,6 km/h (1 Bft)
16.03.2014 22:58 7,9 C 6,1 C 86 % 1020,1 hPa 0,0 l/m 0 min 0 min 0,0 UV-I 0 W/m 0,0 km/h (0 Bft)
16.03.2014 23:00 8,0 C 6,1 C 86 % 1020,1 hPa 0,0 l/m 0 min 0 min 0,0 UV-I 0 W/m 0,0 km/h (0 Bft)
16.03.2014 23:02 8,0 C 6,1 C 86 % 1020,1 hPa 0,0 l/m 0 min 0 min 0,0 UV-I 0 W/m 0,0 km/h (0 Bft)
16.03.2014 23:06 8,0 C 6,1 C 85 % 1020,1 hPa 0,0 l/m 0 min 0 min 0,0 UV-I 0 W/m 0,0 km/h (0 Bft)
16.03.2014 23:08 8,0 C 6,1 C 85 % 1020,1 hPa 0,0 l/m 0 min 0 min 0,0 UV-I 0 W/m 0,0 km/h (0 Bft)
16.03.2014 23:10 8,0 C 6,1 C 85 % 1020,0 hPa 0,0 l/m 0 min 0 min 0,0 UV-I 0 W/m 0,0 km/h (0 Bft)
16.03.2014 23:12 7,9 C 6,1 C 85 % 1020,0 hPa 0,0 l/m 0 min 0 min 0,0 UV-I 0 W/m 0,0 km/h (0 Bft)
16.03.2014 23:14 7,9 C 6,1 C 85 % 1020,0 hPa 0,0 l/m 0 min 0 min 0,0 UV-I 0 W/m 0,0 km/h (0 Bft)
16.03.2014 23:16 7,9 C 6,1 C 85 % 1020,0 hPa 0,0 l/m 0 min 0 min 0,0 UV-I 0 W/m 0,0 km/h (0 Bft)
16.03.2014 23:18 7,9 C 6,1 C 85 % 1019,9 hPa 0,0 l/m 0 min 0 min 0,0 UV-I 0 W/m 0,0 km/h (0 Bft)
16.03.2014 23:20 7,9 C 6,1 C 85 % 1019,8 hPa 0,0 l/m 0 min 0 min 0,0 UV-I 0 W/m 0,0 km/h (0 Bft)
16.03.2014 23:22 7,9 C 6,1 C 85 % 1019,8 hPa 0,0 l/m 0 min 0 min 0,0 UV-I 0 W/m 0,0 km/h (0 Bft)
16.03.2014 23:24 7,9 C 6,1 C 85 % 1019,8 hPa 0,0 l/m 0 min 0 min 0,0 UV-I 0 W/m 0,0 km/h (0 Bft)
16.03.2014 23:26 7,9 C 6,1 C 85 % 1019,8 hPa 0,0 l/m 0 min 0 min 0,0 UV-I 0 W/m 0,0 km/h (0 Bft)
16.03.2014 23:28 7,9 C 6,1 C 84 % 1019,8 hPa 0,0 l/m 0 min 0 min 0,0 UV-I 0 W/m 0,0 km/h (0 Bft)
16.03.2014 23:30 7,8 C 6,1 C 84 % 1019,8 hPa 0,0 l/m 0 min 0 min 0,0 UV-I 0 W/m 0,0 km/h (0 Bft)
16.03.2014 23:32 7,8 C 6,1 C 84 % 1019,9 hPa 0,0 l/m 0 min 0 min 0,0 UV-I 0 W/m 0,0 km/h (0 Bft)
16.03.2014 23:34 7,8 C 6,1 C 84 % 1019,8 hPa 0,0 l/m 0 min 0 min 0,0 UV-I 0 W/m 0,0 km/h (0 Bft)
16.03.2014 23:36 7,8 C 6,1 C 85 % 1019,7 hPa 0,0 l/m 0 min 0 min 0,0 UV-I 0 W/m 0,0 km/h (0 Bft)
16.03.2014 23:38 7,8 C 6,1 C 84 % 1019,7 hPa 0,0 l/m 0 min 0 min 0,0 UV-I 0 W/m 0,0 km/h (0 Bft)
16.03.2014 23:40 7,9 C 6,1 C 84 % 1019,7 hPa 0,0 l/m 0 min 0 min 0,0 UV-I 0 W/m 0,0 km/h (0 Bft)
16.03.2014 23:42 7,9 C 6,1 C 84 % 1019,7 hPa 0,0 l/m 0 min 0 min 0,0 UV-I 0 W/m 0,0 km/h (0 Bft)
16.03.2014 23:44 8,0 C 6,1 C 84 % 1019,7 hPa 0,0 l/m 0 min 0 min 0,0 UV-I 0 W/m 0,0 km/h (0 Bft)
16.03.2014 23:46 8,0 C 6,1 C 83 % 1019,7 hPa 0,0 l/m 0 min 0 min 0,0 UV-I 0 W/m 0,0 km/h (0 Bft)
16.03.2014 23:48 8,1 C 6,1 C 83 % 1019,6 hPa 0,0 l/m 0 min 0 min 0,0 UV-I 0 W/m 0,0 km/h (0 Bft)
16.03.2014 23:50 8,1 C 6,1 C 83 % 1019,6 hPa 0,0 l/m 0 min 0 min 0,0 UV-I 0 W/m 2,6 km/h (1 Bft)
16.03.2014 23:52 8,0 C 6,1 C 83 % 1019,5 hPa 0,0 l/m 0 min 0 min 0,0 UV-I 0 W/m 0,0 km/h (0 Bft)
16.03.2014 23:54 7,9 C 6,1 C 83 % 1019,5 hPa 0,0 l/m 0 min 0 min 0,0 UV-I 0 W/m 0,0 km/h (0 Bft)
16.03.2014 23:56 7,9 C 6,1 C 83 % 1019,5 hPa 0,0 l/m 0 min 0 min 0,0 UV-I 0 W/m 0,0 km/h (0 Bft)
16.03.2014 23:58 7,9 C 6,1 C 83 % 1019,4 hPa 0,0 l/m 0 min 0 min 0,0 UV-I 0 W/m 0,0 km/h (0 Bft)
_ Min-Zeit 22:42 22:32 16:36 04:34 - - - - - 03:12
Minimum _ 7,8 C 6,1 C 73 % 1017,8 hPa - - - - - 0,0 km/h (0 Bft)
_ Max-Zeit 13:38 13:36 09:58 20:26 00:00 13:02 00:00 13:34 13:32 13:44
Maximum _ 14,4 C 15,0 C 88 % 1020,3 hPa 0,0 l/m 2 min 0 min 2,3 UV-I 761 W/m 33,5 km/h
W-SW (5 Bft)
Durchschnitt _ 10,8 C 9,6 C 81 % 1018,9 hPa #0,0 l/m #1:50 h #0 min. 1,0 UV-I 130 W/m 12,1 km/h (2 Bft)
© 2014 W. Hausmann